| time (UTC) | temp F | wind direction | speed knots | gust knots | rain 1hr in | rain 24hr in | rain mn in | humidity % | barometer mb |
| 20260905113335 | 0 | 0.0 | 0.0 | 0.00 | 0.00 | 0.00 | |||
| 20260905113139 | 0 | 0.0 | 0.0 | 0.00 | 0.00 | 0.00 | |||
| 20260905113033 | 0 | 0.0 | 0.0 | 0.00 | 0.00 | 0.00 | |||
| 20260905112935 | 0 | 0.0 | 0.0 | 0.00 | 0.00 | 0.00 | |||
| 20260905112708 | 0 | 0.0 | 0.0 | 0.00 | 0.00 | 0.00 | |||
| 20260905112610 | 0 | 0.0 | 0.0 | 0.00 | 0.00 | 0.00 | |||
| 20260905112507 | 0 | 0.0 | 0.0 | 0.00 | 0.00 | 0.00 | |||
| 20260905112307 | 0 | 0.0 | 0.0 | 0.00 | 0.00 | 0.00 | 1015.7 | ||
| 20260905112137 | 0 | 0.0 | 0.0 | 0.00 | 0.00 | 0.00 | 1015.7 | ||
| 20260905112003 | 0 | 0.0 | 0.0 | 0.00 | 0.00 | 0.00 | 1015.7 | ||
| 20260905111835 | 0 | 0.0 | 0.0 | 0.00 | 0.00 | 0.00 | 1015.7 | ||
| 20260905111635 | 68 | 32 | 0.0 | 4.3 | 0.00 | 0.00 | 0.00 | 97 | 1015.7 |
| 20260905111508 | 68 | 32 | 0.0 | 4.3 | 0.00 | 0.00 | 0.00 | 97 | 1015.7 |
| 20260905111434 | 68 | 32 | 0.0 | 4.3 | 0.00 | 0.00 | 0.00 | 97 | 1015.7 |
| 20260905111207 | 68 | 32 | 0.0 | 4.3 | 0.00 | 0.00 | 0.00 | 97 | 1015.6 |
| 20260905111116 | 68 | 32 | 0.0 | 4.3 | 0.00 | 0.00 | 0.00 | 97 | 1015.6 |
| 20260905111012 | 68 | 32 | 0.0 | 4.3 | 0.00 | 0.00 | 0.00 | 97 | 1015.6 |
| 20260905110735 | 68 | 31 | 0.0 | 4.3 | 0.00 | 0.00 | 0.00 | 97 | 1015.7 |
| 20260905110633 | 68 | 61 | 0.0 | 2.6 | 0.00 | 0.00 | 0.00 | 97 | 1015.7 |
| 20260905110437 | 68 | 58 | 0.0 | 2.6 | 0.00 | 0.00 | 0.00 | 97 | 1015.8 |
| 20260905110331 | 68 | 58 | 0.0 | 2.6 | 0.00 | 0.00 | 0.00 | 97 | 1015.7 |
| 20260905110131 | 68 | 59 | 0.0 | 2.6 | 0.00 | 0.00 | 0.00 | 97 | 1015.7 |
| 20260905105940 | 68 | 0 | 0.0 | 1.7 | 0.00 | 0.00 | 0.00 | 97 | 1015.9 |
| 20260905105710 | 68 | 0 | 0.0 | 1.7 | 0.00 | 0.00 | 0.00 | 97 | 1015.8 |
| 20260905105608 | 68 | 0 | 0.0 | 2.6 | 0.00 | 0.00 | 0.00 | 97 | 1015.7 |
| 20260905105410 | 68 | 0 | 0.0 | 2.6 | 0.00 | 0.00 | 0.00 | 97 | 1015.8 |
| 20260905105309 | 68 | 0 | 0.0 | 2.6 | 0.00 | 0.00 | 0.00 | 97 | 1015.8 |
| 20260905105112 | 68 | 329 | 0.0 | 2.6 | 0.00 | 0.00 | 0.00 | 97 | 1015.7 |
| 20260905104906 | 68 | 330 | 0.0 | 2.6 | 0.00 | 0.00 | 0.00 | 97 | 1015.7 |
| 20260905104709 | 68 | 329 | 0.0 | 2.6 | 0.00 | 0.00 | 0.00 | 97 | 1015.7 |
| 20260905104608 | 68 | 37 | 0.0 | 2.6 | 0.00 | 0.00 | 0.00 | 97 | 1015.7 |
| 20260905104410 | 68 | 37 | 0.0 | 2.6 | 0.00 | 0.00 | 0.00 | 97 | 1015.6 |
| 20260905104307 | 68 | 37 | 0.0 | 3.5 | 0.00 | 0.00 | 0.00 | 97 | 1015.6 |
| 20260905104145 | 68 | 35 | 0.0 | 3.5 | 0.00 | 0.00 | 0.00 | 97 | 1015.6 |
| 20260905103836 | 68 | 56 | 0.0 | 3.5 | 0.00 | 0.00 | 0.00 | 97 | 1015.4 |
| 20260905103641 | 68 | 54 | 0.0 | 3.5 | 0.00 | 0.00 | 0.00 | 97 | 1015.4 |
| 20260905103431 | 68 | 72 | 0.0 | 3.5 | 0.00 | 0.00 | 0.00 | 97 | 1015.5 |
| 20260905103334 | 68 | 86 | 0.0 | 3.5 | 0.00 | 0.00 | 0.00 | 97 | 1015.6 |
| 20260905103233 | 68 | 42 | 0.0 | 3.5 | 0.00 | 0.00 | 0.00 | 97 | 1015.6 |
| 20260905103210 | 68 | 47 | 0.0 | 4.3 | 0.00 | 0.00 | 0.00 | 97 | 1015.5 |
| 20260905103117 | 68 | 45 | 0.0 | 5.2 | 0.00 | 0.00 | 0.00 | 97 | 1015.5 |
| 20260905102831 | 68 | 59 | 0.0 | 5.2 | 0.00 | 0.00 | 0.00 | 97 | 1015.5 |
| 20260905102731 | 68 | 41 | 0.0 | 5.2 | 0.00 | 0.00 | 0.00 | 97 | 1015.4 |
| 20260905102431 | 68 | 38 | 0.0 | 5.2 | 0.00 | 0.00 | 0.00 | 97 | 1015.5 |
| 20260905102339 | 68 | 39 | 0.0 | 5.2 | 0.00 | 0.00 | 0.00 | 97 | 1015.4 |
| 20260905102233 | 68 | 37 | 0.0 | 5.2 | 0.00 | 0.00 | 0.00 | 97 | 1015.5 |
| 20260905102108 | 68 | 0 | 0.0 | 5.2 | 0.00 | 0.00 | 0.00 | 97 | 1015.5 |
| 20260905102047 | 0 | 0.0 | 0.0 | 0.00 | 0.00 | 0.00 | 1015.5 | ||
| 20260905101542 | 0 | 0.0 | 0.0 | 0.00 | 0.00 | 0.00 | |||
| 20260905101534 | 0 | 0.0 | 0.0 | 0.00 | 0.00 | 0.00 | |||
| 20260905101307 | 0 | 0.0 | 0.0 | 0.00 | 0.00 | 0.00 | |||
| 20260905101248 | 0 | 0.0 | 0.0 | 0.00 | 0.00 | 0.00 | |||
| 20260905100809 | 0 | 0.0 | 0.0 | 0.00 | 0.00 | 0.00 | |||
| 20260905100605 | 0 | 0.0 | 0.0 | 0.00 | 0.00 | 0.00 | |||
| 20260905100516 | 0 | 0.0 | 0.0 | 0.00 | 0.00 | 0.00 | 1015.4 | ||
| 20260905100507 | 0 | 0.0 | 0.0 | 0.00 | 0.00 | 0.00 | |||
| 20260905100247 | 68 | 41 | 0.0 | 1.7 | 0.00 | 0.00 | 0.00 | 97 | 1015.4 |
| 20260905100212 | 68 | 41 | 0.0 | 1.7 | 0.00 | 0.00 | 0.00 | 97 | 1015.4 |
| 20260905100208 | 0 | 0.0 | 0.0 | 0.00 | 0.00 | 0.00 | 1015.4 | ||
| 20260905095734 | 68 | 41 | 0.0 | 3.5 | 0.00 | 0.00 | 0.00 | 97 | 1015.4 |
| 20260905095509 | 68 | 41 | 0.0 | 3.5 | 0.00 | 0.00 | 0.00 | 97 | 1015.4 |
| 20260905095432 | 68 | 41 | 0.0 | 3.5 | 0.00 | 0.00 | 0.00 | 97 | 1015.5 |
| 20260905095314 | 68 | 41 | 0.0 | 3.5 | 0.00 | 0.00 | 0.00 | 97 | 1015.4 |
| 20260905095218 | 68 | 41 | 0.0 | 3.5 | 0.00 | 0.00 | 0.00 | 97 | 1015.2 |
| 20260905095214 | 68 | 59 | 0.0 | 3.5 | 0.00 | 0.00 | 0.00 | 97 | 1015.1 |
| 20260905095201 | 68 | 41 | 0.0 | 3.5 | 0.00 | 0.00 | 0.00 | 97 | 1015.2 |
| 20260905094706 | 68 | 38 | 0.0 | 1.7 | 0.00 | 0.00 | 0.00 | 97 | 1014.7 |
| 20260905094611 | 68 | 8 | 0.0 | 0.9 | 0.00 | 0.00 | 0.00 | 97 | 1014.6 |
| 20260905094435 | 68 | 8 | 0.0 | 0.9 | 0.00 | 0.00 | 0.00 | 97 | 1014.6 |
| 20260905094313 | 68 | 8 | 0.0 | 0.9 | 0.00 | 0.00 | 0.00 | 97 | 1014.6 |
| 20260905094038 | 68 | 7 | 0.0 | 0.9 | 0.00 | 0.00 | 0.00 | 97 | 1014.6 |
| 20260905093926 | 68 | 8 | 0.0 | 1.7 | 0.00 | 0.00 | 0.00 | 97 | 1014.6 |
| 20260905093837 | 68 | 8 | 0.0 | 2.6 | 0.00 | 0.00 | 0.00 | 97 | 1014.6 |
| 20260905093743 | 68 | 8 | 0.0 | 2.6 | 0.00 | 0.00 | 0.00 | 97 | 1014.5 |
| 20260905093707 | 68 | 10 | 0.0 | 2.6 | 0.00 | 0.00 | 0.00 | 97 | 1014.5 |
| 20260905093700 | 68 | 8 | 0.0 | 2.6 | 0.00 | 0.00 | 0.00 | 97 | 1014.7 |
| 20260905093241 | 68 | 350 | 0.0 | 2.6 | 0.00 | 0.00 | 0.00 | 97 | 1014.6 |
| 20260905093039 | 68 | 350 | 0.0 | 2.6 | 0.00 | 0.00 | 0.00 | 97 | 1014.6 |
| 20260905092914 | 68 | 347 | 0.0 | 2.6 | 0.00 | 0.00 | 0.00 | 97 | 1014.6 |
| 20260905092809 | 68 | 14 | 0.0 | 2.6 | 0.00 | 0.00 | 0.00 | 97 | 1014.6 |
| 20260905092703 | 68 | 38 | 0.0 | 2.6 | 0.00 | 0.00 | 0.00 | 97 | 1014.6 |
| 20260905092652 | 68 | 18 | 0.0 | 2.6 | 0.00 | 0.00 | 0.00 | 97 | 1014.7 |
| 20260905092624 | 68 | 38 | 0.0 | 2.6 | 0.00 | 0.00 | 0.00 | 97 | 1014.6 |
| 20260905092211 | 68 | 38 | 0.0 | 2.6 | 0.00 | 0.00 | 0.00 | 97 | 1014.6 |
| 20260905092010 | 68 | 16 | 0.0 | 2.6 | 0.00 | 0.00 | 0.00 | 97 | 1014.7 |
| 20260905091921 | 68 | 14 | 0.0 | 2.6 | 0.00 | 0.00 | 0.00 | 97 | 1014.7 |
| 20260905091911 | 68 | 16 | 0.0 | 2.6 | 0.00 | 0.00 | 0.00 | 97 | 1014.7 |
| 20260905091709 | 68 | 14 | 0.0 | 2.6 | 0.00 | 0.00 | 0.00 | 97 | 1014.8 |
| 20260905091650 | 68 | 16 | 0.0 | 2.6 | 0.00 | 0.00 | 0.00 | 97 | 1014.7 |
| 20260905091211 | 68 | 6 | 0.0 | 2.6 | 0.00 | 0.00 | 0.00 | 97 | 1014.8 |
| 20260905091009 | 68 | 6 | 0.0 | 2.6 | 0.00 | 0.00 | 0.00 | 97 | 1014.8 |
| 20260905090910 | 68 | 6 | 0.0 | 2.6 | 0.00 | 0.00 | 0.00 | 97 | 1014.8 |
| 20260905090810 | 68 | 6 | 0.0 | 2.6 | 0.00 | 0.00 | 0.00 | 97 | 1015.0 |
| 20260905090610 | 68 | 6 | 0.0 | 2.6 | 0.00 | 0.00 | 0.00 | 97 | 1015.0 |
| 20260905090521 | 68 | 6 | 0.0 | 2.6 | 0.00 | 0.00 | 0.00 | 97 | 1015.1 |
| 20260905090413 | 68 | 6 | 0.0 | 2.6 | 0.00 | 0.00 | 0.00 | 97 | 1015.1 |
| 20260905090210 | 68 | 3 | 0.0 | 1.7 | 0.00 | 0.00 | 0.00 | 96 | 1015.0 |
| 20260905090113 | 68 | 3 | 0.0 | 2.6 | 0.00 | 0.00 | 0.00 | 96 | 1015.1 |
| 20260905085910 | 68 | 3 | 0.0 | 2.6 | 0.00 | 0.00 | 0.00 | 96 | 1015.1 |
| 20260905085809 | 68 | 3 | 0.0 | 2.6 | 0.00 | 0.00 | 0.00 | 96 | 1015.1 |
| 20260905085657 | 68 | 3 | 0.0 | 2.6 | 0.00 | 0.00 | 0.00 | 96 | 1015.1 |
| 20260905085648 | 68 | 3 | 0.0 | 2.6 | 0.00 | 0.00 | 0.00 | 96 | 1015.2 |
| 20260905085622 | 68 | 3 | 0.0 | 2.6 | 0.00 | 0.00 | 0.00 | 96 | 1015.1 |
| 20260905085211 | 68 | 3 | 0.0 | 2.6 | 0.00 | 0.00 | 0.00 | 96 | 1015.3 |
| 20260905085110 | 68 | 0 | 0.0 | 2.6 | 0.00 | 0.00 | 0.00 | 96 | 1015.3 |
| 20260905084911 | 67 | 14 | 0.0 | 2.6 | 0.00 | 0.00 | 0.00 | 96 | 1015.1 |
| 20260905084810 | 67 | 16 | 0.0 | 2.6 | 0.00 | 0.00 | 0.00 | 96 | 1015.2 |
| 20260905084714 | 67 | 4 | 0.0 | 3.5 | 0.00 | 0.00 | 0.00 | 96 | 1015.1 |
| 20260905084658 | 67 | 11 | 0.0 | 2.6 | 0.00 | 0.00 | 0.00 | 96 | 1015.2 |
| 20260905084626 | 67 | 4 | 0.0 | 3.5 | 0.00 | 0.00 | 0.00 | 96 | 1015.1 |
| 20260905084210 | 67 | 30 | 0.0 | 3.5 | 0.00 | 0.00 | 0.00 | 96 | 1015.1 |
| 20260905084104 | 67 | 7 | 0.0 | 3.5 | 0.00 | 0.00 | 0.00 | 96 | 1015.2 |
| 20260905083910 | 67 | 8 | 0.0 | 3.5 | 0.00 | 0.00 | 0.00 | 96 | 1015.1 |
| 20260905083809 | 67 | 7 | 0.0 | 3.5 | 0.00 | 0.00 | 0.00 | 96 | 1015.2 |
| 20260905083757 | 67 | 51 | 0.0 | 3.5 | 0.00 | 0.00 | 0.00 | 96 | 1015.2 |
| 20260905083704 | 67 | 23 | 0.0 | 2.6 | 0.00 | 0.00 | 0.00 | 96 | 1015.2 |
| 20260905083624 | 67 | 23 | 0.0 | 2.6 | 0.00 | 0.00 | 0.00 | 96 | 1015.2 |
| 20260905083211 | 67 | 21 | 0.0 | 2.6 | 0.00 | 0.00 | 0.00 | 96 | 1015.2 |
| 20260905083010 | 67 | 16 | 0.0 | 2.6 | 0.00 | 0.00 | 0.00 | 96 | 1015.2 |
| 20260905082914 | 67 | 16 | 0.0 | 2.6 | 0.00 | 0.00 | 0.00 | 96 | 1015.1 |
| 20260905082812 | 67 | 16 | 0.0 | 2.6 | 0.00 | 0.00 | 0.00 | 96 | 1015.2 |
| 20260905082802 | 67 | 14 | 0.0 | 2.6 | 0.00 | 0.00 | 0.00 | 96 | 1015.1 |
| 20260905082715 | 67 | 14 | 0.0 | 2.6 | 0.00 | 0.00 | 0.00 | 96 | 1015.1 |
| 20260905082628 | 67 | 14 | 0.0 | 2.6 | 0.00 | 0.00 | 0.00 | 96 | 1015.1 |
| 20260905082309 | 67 | 21 | 0.0 | 0.9 | 0.00 | 0.00 | 0.00 | 96 | 1015.1 |
| 20260905082014 | 67 | 27 | 0.0 | 0.9 | 0.00 | 0.00 | 0.00 | 96 | 1015.1 |
| 20260905081910 | 67 | 25 | 0.0 | 0.9 | 0.00 | 0.00 | 0.00 | 96 | 1015.1 |
| 20260905081811 | 67 | 25 | 0.0 | 0.9 | 0.00 | 0.00 | 0.00 | 96 | 1015.2 |
| 20260905081713 | 67 | 25 | 0.0 | 0.9 | 0.00 | 0.00 | 0.00 | 96 | 1015.2 |
| 20260905081657 | 67 | 25 | 0.0 | 0.9 | 0.00 | 0.00 | 0.00 | 96 | 1015.2 |
| 20260905081624 | 67 | 25 | 0.0 | 0.9 | 0.00 | 0.00 | 0.00 | 96 | 1015.2 |
| 20260905081310 | 67 | 25 | 0.0 | 0.9 | 0.00 | 0.00 | 0.00 | 96 | 1015.2 |
| 20260905081011 | 67 | 25 | 0.0 | 0.9 | 0.00 | 0.00 | 0.00 | 96 | 1015.2 |
| 20260905080923 | 67 | 25 | 0.0 | 0.9 | 0.00 | 0.00 | 0.00 | 95 | 1015.3 |
| 20260905080914 | 67 | 27 | 0.0 | 0.9 | 0.00 | 0.00 | 0.00 | 95 | 1015.2 |
| 20260905080700 | 67 | 25 | 0.0 | 0.9 | 0.00 | 0.00 | 0.00 | 95 | 1015.3 |
| 20260905080652 | 67 | 25 | 0.0 | 0.9 | 0.00 | 0.00 | 0.00 | 95 | 1015.2 |
| 20260905080626 | 67 | 25 | 0.0 | 0.9 | 0.00 | 0.00 | 0.00 | 95 | 1015.3 |
| 20260905080211 | 67 | 25 | 0.0 | 0.9 | 0.00 | 0.00 | 0.00 | 95 | 1015.3 |
| 20260905080010 | 67 | 25 | 0.0 | 0.0 | 0.00 | 0.00 | 0.00 | 95 | 1015.4 |
| 20260905075921 | 67 | 25 | 0.0 | 0.0 | 0.00 | 0.00 | 0.00 | 95 | 1015.3 |
| 20260905075912 | 67 | 27 | 0.0 | 0.0 | 0.00 | 0.00 | 0.00 | 95 | 1015.3 |
| 20260905075704 | 67 | 25 | 0.0 | 0.0 | 0.00 | 0.00 | 0.00 | 95 | 1015.3 |
| 20260905075652 | 67 | 25 | 0.0 | 0.0 | 0.00 | 0.00 | 0.00 | 95 | 1015.3 |
| 20260905075208 | 68 | 25 | 0.0 | 0.0 | 0.00 | 0.00 | 0.00 | 95 | 1015.2 |
| 20260905075008 | 68 | 25 | 0.0 | 0.9 | 0.00 | 0.00 | 0.00 | 95 | 1015.4 |
| 20260905074916 | 68 | 25 | 0.0 | 0.9 | 0.00 | 0.00 | 0.00 | 95 | 1015.4 |
| 20260905074810 | 68 | 25 | 0.0 | 0.9 | 0.00 | 0.00 | 0.00 | 95 | 1015.4 |
| 20260905074709 | 68 | 27 | 0.0 | 0.9 | 0.00 | 0.00 | 0.00 | 95 | 1015.3 |
| 20260905074657 | 68 | 25 | 0.0 | 0.9 | 0.00 | 0.00 | 0.00 | 95 | 1015.4 |
| 20260905074211 | 68 | 27 | 0.0 | 0.9 | 0.00 | 0.00 | 0.00 | 95 | 1015.3 |
| 20260905074109 | 68 | 25 | 0.0 | 0.9 | 0.00 | 0.00 | 0.00 | 95 | 1015.3 |
| 20260905073905 | 68 | 25 | 0.0 | 0.9 | 0.00 | 0.00 | 0.00 | 95 | 1015.4 |
| 20260905073810 | 68 | 27 | 0.0 | 0.9 | 0.00 | 0.00 | 0.00 | 95 | 1015.4 |
| 20260905073610 | 68 | 27 | 0.0 | 0.0 | 0.00 | 0.00 | 0.00 | 95 | 1015.4 |
| 20260905073429 | 68 | 27 | 0.0 | 0.0 | 0.00 | 0.00 | 0.00 | 95 | 1015.5 |
| 20260905073420 | 68 | 25 | 0.0 | 0.0 | 0.00 | 0.00 | 0.00 | 95 | 1015.5 |
| 20260905073234 | 68 | 27 | 0.0 | 0.0 | 0.00 | 0.00 | 0.00 | 95 | 1015.5 |
| 20260905073207 | 68 | 25 | 0.0 | 0.0 | 0.00 | 0.00 | 0.00 | 95 | 1015.5 |
| 20260905073153 | 68 | 25 | 0.0 | 0.9 | 0.00 | 0.00 | 0.00 | 95 | 1015.4 |
| 20260905072806 | 68 | 25 | 0.0 | 0.9 | 0.00 | 0.00 | 0.00 | 95 | 1015.4 |
| 20260905072604 | 68 | 27 | 0.0 | 0.9 | 0.00 | 0.00 | 0.00 | 95 | 1015.3 |
| 20260905072407 | 68 | 25 | 0.0 | 0.9 | 0.00 | 0.00 | 0.00 | 95 | 1015.3 |
| 20260905072306 | 68 | 25 | 0.0 | 0.9 | 0.00 | 0.00 | 0.00 | 95 | 1015.2 |
| 20260905072154 | 68 | 25 | 0.0 | 0.9 | 0.00 | 0.00 | 0.00 | 95 | 1015.4 |
| 20260905072149 | 68 | 25 | 0.0 | 0.0 | 0.00 | 0.00 | 0.00 | 95 | 1015.4 |
| 20260905072135 | 68 | 25 | 0.0 | 0.9 | 0.00 | 0.00 | 0.00 | 95 | 1015.3 |
| 20260905071605 | 0 | 0.0 | 0.0 | 0.00 | 0.00 | 0.00 | 1015.5 | ||
| 20260905071406 | 0 | 0.0 | 0.0 | 0.00 | 0.00 | 0.00 | 1015.4 | ||
| 20260905071135 | 0 | 0.0 | 0.0 | 0.00 | 0.00 | 0.00 | |||
| 20260905071047 | 0 | 0.0 | 0.0 | 0.00 | 0.00 | 0.00 | |||
| 20260905071043 | 0 | 0.0 | 0.0 | 0.00 | 0.00 | 0.00 | |||
| 20260905071033 | 0 | 0.0 | 0.0 | 0.00 | 0.00 | 0.00 | |||
| 20260905070534 | 0 | 0.0 | 0.0 | 0.00 | 0.00 | 0.00 | |||
| 20260905070437 | 0 | 0.0 | 0.0 | 0.00 | 0.00 | 0.00 | |||
| 20260905070303 | 0 | 0.0 | 0.0 | 0.00 | 0.00 | 0.00 | |||
| 20260905070107 | 0 | 0.0 | 0.0 | 0.00 | 0.00 | 0.00 | 1015.4 | ||
| 20260905065907 | 0 | 0.0 | 0.0 | 0.00 | 0.00 | 0.00 | 1015.4 | ||
| 20260905065809 | 0 | 0.0 | 0.0 | 0.00 | 0.00 | 0.00 | 1015.4 | ||
| 20260905065706 | 0 | 0.0 | 0.0 | 0.00 | 0.00 | 0.00 | 1015.4 | ||
| 20260905065435 | 69 | 25 | 0.0 | 0.0 | 0.00 | 0.00 | 0.00 | 94 | 1015.4 |
| 20260905065345 | 69 | 25 | 0.0 | 0.0 | 0.00 | 0.00 | 0.00 | 94 | 1015.4 |
| 20260905065240 | 69 | 25 | 0.0 | 0.0 | 0.00 | 0.00 | 0.00 | 94 | 1015.4 |
| 20260905065023 | 69 | 25 | 0.0 | 0.0 | 0.00 | 0.00 | 0.00 | 94 | 1015.5 |
| 20260905064922 | 69 | 25 | 0.0 | 0.0 | 0.00 | 0.00 | 0.00 | 94 | 1015.4 |
| 20260905064724 | 69 | 25 | 0.0 | 0.0 | 0.00 | 0.00 | 0.00 | 94 | 1015.5 |
| 20260905064622 | 69 | 25 | 0.0 | 0.0 | 0.00 | 0.00 | 0.00 | 94 | 1015.4 |
| 20260905064421 | 0 | 27 | 0.0 | 0.0 | 0.00 | 0.00 | 0.00 | 1015.4 | |
| 20260905064329 | 0 | 0.0 | 0.0 | 0.00 | 0.00 | 0.00 | 1015.5 | ||
| 20260905064223 | 0 | 0.0 | 0.0 | 0.00 | 0.00 | 0.00 | 1015.5 | ||
| 20260905063809 | 0 | 0.0 | 0.0 | 0.00 | 0.00 | 0.00 | |||
| 20260905063705 | 0 | 0.0 | 0.0 | 0.00 | 0.00 | 0.00 | |||
| 20260905063334 | 0 | 0.0 | 0.0 | 0.00 | 0.00 | 0.00 | |||
| 20260905063233 | 0 | 0.0 | 0.0 | 0.00 | 0.00 | 0.00 | |||
| 20260905063135 | 0 | 0.0 | 0.0 | 0.00 | 0.00 | 0.00 | |||
| 20260905062934 | 0 | 0.0 | 0.0 | 0.00 | 0.00 | 0.00 | |||
| 20260905062734 | 0 | 0.0 | 0.0 | 0.00 | 0.00 | 0.00 | 1015.3 | ||
| 20260905062606 | 0 | 0.0 | 0.0 | 0.00 | 0.00 | 0.00 | 1015.3 | ||
| 20260905062307 | 69 | 25 | 0.0 | 0.0 | 0.00 | 0.00 | 0.00 | 94 | 1015.3 |
| 20260905062216 | 69 | 25 | 0.0 | 0.0 | 0.00 | 0.00 | 0.00 | 94 | 1015.3 |
| 20260905062208 | 69 | 25 | 0.0 | 0.0 | 0.00 | 0.00 | 0.00 | 94 | 1015.3 |
| 20260905061946 | 69 | 25 | 0.0 | 0.0 | 0.00 | 0.00 | 0.00 | 94 | 1015.3 |
| 20260905061939 | 69 | 25 | 0.0 | 0.0 | 0.00 | 0.00 | 0.00 | 94 | 1015.3 |
| 20260905061916 | 69 | 25 | 0.0 | 0.0 | 0.00 | 0.00 | 0.00 | 94 | 1015.3 |
| 20260905061502 | 69 | 25 | 0.0 | 0.0 | 0.00 | 0.00 | 0.00 | 94 | 1015.3 |
| 20260905061259 | 69 | 25 | 0.0 | 0.0 | 0.00 | 0.00 | 0.00 | 93 | 1015.3 |
| 20260905061215 | 69 | 27 | 0.0 | 0.0 | 0.00 | 0.00 | 0.00 | 93 | 1015.2 |
| 20260905061200 | 69 | 25 | 0.0 | 0.0 | 0.00 | 0.00 | 0.00 | 93 | 1015.4 |
| 20260905060949 | 69 | 27 | 0.0 | 1.7 | 0.00 | 0.00 | 0.00 | 93 | 1015.2 |
| 20260905060939 | 69 | 25 | 0.0 | 1.7 | 0.00 | 0.00 | 0.00 | 93 | 1015.3 |
| 20260905060506 | 69 | 25 | 0.0 | 1.7 | 0.00 | 0.00 | 0.00 | 93 | 1015.3 |
| 20260905060459 | 69 | 24 | 0.0 | 1.7 | 0.00 | 0.00 | 0.00 | 93 | 1015.3 |
| 20260905060201 | 69 | 25 | 0.0 | 1.7 | 0.00 | 0.00 | 0.00 | 93 | 1015.2 |
| 20260905060100 | 69 | 25 | 0.0 | 0.9 | 0.00 | 0.00 | 0.00 | 93 | 1015.3 |
| 20260905055935 | 69 | 25 | 0.0 | 0.0 | 0.00 | 0.00 | 0.00 | 93 | 1015.2 |
| 20260905055915 | 0 | 0.0 | 0.0 | 0.00 | 0.00 | 0.00 | 1015.2 | ||
| 20260905055406 | 0 | 0.0 | 0.0 | 0.00 | 0.00 | 0.00 | |||
| 20260905055307 | 0 | 0.0 | 0.0 | 0.00 | 0.00 | 0.00 | |||
| 20260905055114 | 0 | 0.0 | 0.0 | 0.00 | 0.00 | 0.00 | |||
| 20260905055051 | 0 | 0.0 | 0.0 | 0.00 | 0.00 | 0.00 | |||
| 20260905054829 | 0 | 0.0 | 0.0 | 0.00 | 0.00 | 0.00 | |||
| 20260905054438 | 0 | 0.0 | 0.0 | 0.00 | 0.00 | 0.00 | |||
| 20260905054333 | 0 | 0.0 | 0.0 | 0.00 | 0.00 | 0.00 | |||
| 20260905054234 | 0 | 0.0 | 0.0 | 0.00 | 0.00 | 0.00 | 1015.2 | ||
| 20260905054008 | 0 | 0.0 | 0.0 | 0.00 | 0.00 | 0.00 | 1015.2 | ||
| 20260905053806 | 70 | 25 | 0.0 | 0.0 | 0.00 | 0.00 | 0.00 | 92 | 1015.2 |
| 20260905053607 | 70 | 25 | 0.0 | 0.0 | 0.00 | 0.00 | 0.00 | 92 | 1015.2 |
| 20260905053412 | 70 | 25 | 0.0 | 0.0 | 0.00 | 0.00 | 0.00 | 92 | 1015.2 |
| 20260905053406 | 70 | 25 | 0.0 | 0.0 | 0.00 | 0.00 | 0.00 | 92 | 1015.2 |
| 20260905053304 | 70 | 25 | 0.0 | 0.0 | 0.00 | 0.00 | 0.00 | 92 | 1015.2 |
| 20260905053003 | 70 | 25 | 0.0 | 0.0 | 0.00 | 0.00 | 0.00 | 92 | 1015.2 |
| 20260905052804 | 70 | 27 | 0.0 | 0.0 | 0.00 | 0.00 | 0.00 | 92 | 1015.2 |
| 20260905052602 | 70 | 25 | 0.0 | 0.0 | 0.00 | 0.00 | 0.00 | 92 | 1015.1 |
| 20260905052403 | 70 | 27 | 0.0 | 0.0 | 0.00 | 0.00 | 0.00 | 92 | 1015.2 |
| 20260905052306 | 70 | 27 | 0.0 | 0.0 | 0.00 | 0.00 | 0.00 | 92 | 1015.1 |
| 20260905052202 | 70 | 27 | 0.0 | 0.0 | 0.00 | 0.00 | 0.00 | 92 | 1015.1 |
| 20260905052004 | 70 | 25 | 0.0 | 0.0 | 0.00 | 0.00 | 0.00 | 92 | 1015.1 |
| 20260905051910 | 70 | 25 | 0.0 | 0.0 | 0.00 | 0.00 | 0.00 | 92 | 1014.8 |
| 20260905051805 | 70 | 25 | 0.0 | 0.0 | 0.00 | 0.00 | 0.00 | 92 | 1014.8 |
| 20260905051603 | 71 | 27 | 0.0 | 0.9 | 0.00 | 0.00 | 0.00 | 91 | 1015.0 |
| 20260905051402 | 71 | 24 | 0.0 | 0.9 | 0.00 | 0.00 | 0.00 | 92 | 1015.0 |
| 20260905051315 | 71 | 25 | 0.0 | 0.9 | 0.00 | 0.00 | 0.00 | 92 | 1015.0 |
| 20260905051300 | 71 | 25 | 0.0 | 0.9 | 0.00 | 0.00 | 0.00 | 92 | 1014.8 |
| 20260905051002 | 71 | 25 | 0.0 | 0.9 | 0.00 | 0.00 | 0.00 | 91 | 1014.8 |
| 20260905050813 | 71 | 25 | 0.0 | 0.9 | 0.00 | 0.00 | 0.00 | 91 | 1014.8 |
| 20260905050800 | 71 | 25 | 0.0 | 0.9 | 0.00 | 0.00 | 0.00 | 91 | 1014.8 |
| 20260905050602 | 71 | 25 | 0.0 | 0.0 | 0.00 | 0.00 | 0.00 | 91 | 1014.8 |
| 20260905050457 | 71 | 25 | 0.0 | 0.0 | 0.00 | 0.00 | 0.00 | 91 | 1014.8 |
| 20260905050303 | 71 | 24 | 0.0 | 0.0 | 0.00 | 0.00 | 0.00 | 91 | 1014.7 |
| 20260905050200 | 71 | 25 | 0.0 | 0.0 | 0.00 | 0.00 | 0.00 | 91 | 1014.7 |
| 20260905050000 | 71 | 25 | 0.0 | 0.0 | 0.00 | 0.00 | 0.00 | 91 | 1014.7 |
| 20260905045910 | 0 | 0.0 | 0.0 | 0.00 | 0.00 | 0.00 | 1014.8 | ||
| 20260905045802 | 0 | 0.0 | 0.0 | 0.00 | 0.00 | 0.00 | 1014.8 | ||
| 20260905045410 | 0 | 0.0 | 0.0 | 0.00 | 0.00 | 0.00 | |||
| 20260905045331 | 0 | 0.0 | 0.0 | 0.00 | 0.00 | 0.00 | |||
| 20260905045207 | 0 | 0.0 | 0.0 | 0.00 | 0.00 | 0.00 | |||
| 20260905045006 | 0 | 0.0 | 0.0 | 0.00 | 0.00 | 0.00 | |||
| 20260905044909 | 0 | 0.0 | 0.0 | 0.00 | 0.00 | 0.00 | |||
| 20260905044832 | 0 | 0.0 | 0.0 | 0.00 | 0.00 | 0.00 | |||
| 20260905044534 | 0 | 0.0 | 0.0 | 0.00 | 0.00 | 0.00 | |||
| 20260905044341 | 0 | 0.0 | 0.0 | 0.00 | 0.00 | 0.00 | 1014.8 | ||
| 20260905044303 | 0 | 0.0 | 0.0 | 0.00 | 0.00 | 0.00 | 1014.8 | ||
| 20260905044134 | 0 | 0.0 | 0.0 | 0.00 | 0.00 | 0.00 | 1014.8 | ||
| 20260905044048 | 72 | 25 | 0.0 | 0.9 | 0.00 | 0.00 | 0.00 | 90 | 1014.8 |
| 20260905044037 | 0 | 25 | 0.0 | 0.0 | 0.00 | 0.00 | 0.00 | 1014.8 | |
| 20260905043708 | 72 | 25 | 0.0 | 0.9 | 0.00 | 0.00 | 0.00 | 90 | 1014.8 |
| 20260905043649 | 72 | 25 | 0.0 | 0.9 | 0.00 | 0.00 | 0.00 | 90 | 1014.8 |
| 20260905043255 | 72 | 25 | 0.0 | 0.9 | 0.00 | 0.00 | 0.00 | 90 | 1014.7 |
| 20260905043053 | 72 | 25 | 0.0 | 0.9 | 0.00 | 0.00 | 0.00 | 90 | 1014.8 |
| 20260905043040 | 72 | 27 | 0.0 | 0.9 | 0.00 | 0.00 | 0.00 | 90 | 1014.7 |
| 20260905043025 | 72 | 27 | 0.0 | 0.9 | 0.00 | 0.00 | 0.00 | 90 | 1014.8 |
| 20260905042653 | 72 | 27 | 0.0 | 0.9 | 0.00 | 0.00 | 0.00 | 90 | 1014.8 |
| 20260905042453 | 72 | 25 | 0.0 | 0.0 | 0.00 | 0.00 | 0.00 | 90 | 1014.7 |
| 20260905042254 | 0 | 0.0 | 0.0 | 0.00 | 0.00 | 0.00 | 1014.7 | ||
| 20260905042104 | 0 | 0.0 | 0.0 | 0.00 | 0.00 | 0.00 | |||
| 20260905041844 | 0 | 0.0 | 0.0 | 0.00 | 0.00 | 0.00 | |||
| 20260905041431 | 0 | 0.0 | 0.0 | 0.00 | 0.00 | 0.00 | |||
| 20260905041232 | 0 | 0.0 | 0.0 | 0.00 | 0.00 | 0.00 | |||
| 20260905041130 | 0 | 0.0 | 0.0 | 0.00 | 0.00 | 0.00 | |||
| 20260905041031 | 0 | 0.0 | 0.0 | 0.00 | 0.00 | 0.00 | |||
| 20260905040804 | 0 | 0.0 | 0.0 | 0.00 | 0.00 | 0.00 | 1014.8 | ||
| 20260905040618 | 73 | 31 | 0.0 | 0.0 | 0.00 | 0.00 | 0.00 | 89 | 1014.8 |
| 20260905040604 | 0 | 0.0 | 0.0 | 0.00 | 0.00 | 0.00 | 1014.8 | ||
| 20260905040204 | 73 | 31 | 0.0 | 1.7 | 0.00 | 0.00 | 0.00 | 89 | 1014.8 |
| 20260905040116 | 73 | 31 | 0.0 | 1.7 | 0.00 | 0.00 | 0.00 | 89 | 1014.8 |
| 20260905035950 | 73 | 31 | 0.0 | 1.7 | 0.00 | 0.00 | 0.00 | 89 | 1014.8 |
| 20260905035749 | 73 | 31 | 0.0 | 1.7 | 0.00 | 0.00 | 0.00 | 89 | 1014.7 |
| 20260905035551 | 73 | 31 | 0.0 | 1.7 | 0.00 | 0.00 | 0.00 | 89 | 1014.7 |
| 20260905035353 | 73 | 31 | 0.0 | 0.9 | 0.00 | 0.00 | 0.00 | 89 | 1014.7 |
| 20260905035348 | 73 | 31 | 0.0 | 1.7 | 0.00 | 0.00 | 0.00 | 89 | 1014.7 |
| 20260905035039 | 73 | 31 | 0.0 | 1.7 | 0.00 | 0.00 | 0.00 | 89 | 1014.7 |
| 20260905034940 | 73 | 31 | 0.0 | 1.7 | 0.00 | 0.00 | 0.00 | 89 | 1014.7 |
| 20260905034739 | 73 | 31 | 0.0 | 1.7 | 0.00 | 0.00 | 0.00 | 89 | 1014.7 |
| 20260905034544 | 73 | 31 | 0.0 | 1.7 | 0.00 | 0.00 | 0.00 | 89 | 1014.8 |
| 20260905034535 | 73 | 32 | 0.0 | 1.7 | 0.00 | 0.00 | 0.00 | 89 | 1014.8 |
| 20260905034336 | 73 | 31 | 0.0 | 1.7 | 0.00 | 0.00 | 0.00 | 89 | 1014.8 |
| 20260905034135 | 74 | 32 | 0.0 | 1.7 | 0.00 | 0.00 | 0.00 | 89 | 1015.0 |
| 20260905034041 | 74 | 31 | 0.0 | 1.7 | 0.00 | 0.00 | 0.00 | 89 | 1014.8 |
| 20260905033939 | 0 | 31 | 0.0 | 1.7 | 0.00 | 0.00 | 0.00 | 1015.0 | |
| 20260905033933 | 74 | 32 | 0.0 | 1.7 | 0.00 | 0.00 | 0.00 | 89 | 1014.8 |
| 20260905033535 | 0 | 0.0 | 0.0 | 0.00 | 0.00 | 0.00 | 1015.0 | ||
| 20260905033134 | 0 | 0.0 | 0.0 | 0.00 | 0.00 | 0.00 | |||
| 20260905032908 | 0 | 0.0 | 0.0 | 0.00 | 0.00 | 0.00 | |||
| 20260905032831 | 0 | 0.0 | 0.0 | 0.00 | 0.00 | 0.00 | |||
| 20260905032706 | 0 | 0.0 | 0.0 | 0.00 | 0.00 | 0.00 | |||
| 20260905032506 | 0 | 0.0 | 0.0 | 0.00 | 0.00 | 0.00 | |||
| 20260905032306 | 0 | 0.0 | 0.0 | 0.00 | 0.00 | 0.00 | |||
| 20260905032232 | 0 | 0.0 | 0.0 | 0.00 | 0.00 | 0.00 | 1014.6 | ||
| 20260905031835 | 0 | 0.0 | 0.0 | 0.00 | 0.00 | 0.00 | 1014.6 | ||
| 20260905031802 | 0 | 0.0 | 0.0 | 0.00 | 0.00 | 0.00 | 1014.6 | ||
| 20260905031634 | 74 | 34 | 0.0 | 0.0 | 0.00 | 0.00 | 0.00 | 89 | 1014.6 |
| 20260905031435 | 74 | 34 | 0.0 | 0.0 | 0.00 | 0.00 | 0.00 | 89 | 1014.6 |
| 20260905031307 | 74 | 34 | 0.0 | 0.0 | 0.00 | 0.00 | 0.00 | 89 | 1014.6 |
| 20260905031215 | 74 | 34 | 0.0 | 0.0 | 0.00 | 0.00 | 0.00 | 89 | 1014.6 |
| 20260905031015 | 74 | 34 | 0.0 | 0.0 | 0.00 | 0.00 | 0.00 | 89 | 1014.6 |
| 20260905030826 | 74 | 34 | 0.0 | 0.0 | 0.00 | 0.00 | 0.00 | 89 | 1014.6 |
| 20260905030822 | 74 | 34 | 0.0 | 0.0 | 0.00 | 0.00 | 0.00 | 89 | 1014.6 |
| 20260905030808 | 74 | 34 | 0.0 | 0.0 | 0.00 | 0.00 | 0.00 | 89 | 1014.5 |
| 20260905030415 | 74 | 34 | 0.0 | 0.0 | 0.00 | 0.00 | 0.00 | 89 | 1014.5 |
| 20260905030303 | 74 | 37 | 0.0 | 0.0 | 0.00 | 0.00 | 0.00 | 89 | 1014.5 |
| 20260905030216 | 74 | 37 | 0.0 | 0.0 | 0.00 | 0.00 | 0.00 | 89 | 1014.5 |
| 20260905030012 | 74 | 30 | 0.0 | 0.0 | 0.00 | 0.00 | 0.00 | 89 | 1014.5 |
| 20260905025815 | 74 | 30 | 0.0 | 0.0 | 0.00 | 0.00 | 0.00 | 89 | 1014.4 |
| 20260905025801 | 74 | 30 | 0.0 | 0.0 | 0.00 | 0.00 | 0.00 | 89 | 1014.4 |
| 20260905025614 | 74 | 30 | 0.0 | 0.0 | 0.00 | 0.00 | 0.00 | 89 | 1014.4 |
| 20260905025417 | 74 | 31 | 0.0 | 0.0 | 0.00 | 0.00 | 0.00 | 89 | 1014.4 |
| 20260905025412 | 74 | 30 | 0.0 | 0.0 | 0.00 | 0.00 | 0.00 | 89 | 1014.3 |
| 20260905025306 | 74 | 31 | 0.0 | 0.0 | 0.00 | 0.00 | 0.00 | 89 | 1014.3 |
| 20260905025013 | 74 | 31 | 0.0 | 0.0 | 0.00 | 0.00 | 0.00 | 89 | 1014.3 |
| 20260905024815 | 74 | 31 | 0.0 | 0.0 | 0.00 | 0.00 | 0.00 | 89 | 1014.3 |
| 20260905024759 | 74 | 32 | 0.0 | 0.0 | 0.00 | 0.00 | 0.00 | 89 | 1014.3 |
| 20260905024609 | 74 | 30 | 0.0 | 0.0 | 0.00 | 0.00 | 0.00 | 89 | 1014.2 |
| 20260905024411 | 75 | 31 | 0.0 | 0.0 | 0.00 | 0.00 | 0.00 | 89 | 1014.2 |
| 20260905024259 | 75 | 31 | 0.0 | 0.0 | 0.00 | 0.00 | 0.00 | 89 | 1014.2 |
| 20260905024206 | 75 | 31 | 0.0 | 0.0 | 0.00 | 0.00 | 0.00 | 89 | 1014.2 |
| 20260905024059 | 75 | 31 | 0.0 | 0.0 | 0.00 | 0.00 | 0.00 | 88 | 1014.1 |
| 20260905024049 | 75 | 31 | 0.0 | 0.0 | 0.00 | 0.00 | 0.00 | 88 | 1014.2 |
| 20260905023603 | 0 | 0.0 | 0.0 | 0.00 | 0.00 | 0.00 | |||
| 20260905023311 | 0 | 0.0 | 0.0 | 0.00 | 0.00 | 0.00 | |||
| 20260905023107 | 0 | 0.0 | 0.0 | 0.00 | 0.00 | 0.00 | |||
| 20260905022906 | 0 | 0.0 | 0.0 | 0.00 | 0.00 | 0.00 | |||
| 20260905022823 | 0 | 0.0 | 0.0 | 0.00 | 0.00 | 0.00 | |||
| 20260905022535 | 0 | 0.0 | 0.0 | 0.00 | 0.00 | 0.00 | 1013.8 | ||
| 20260905022237 | 0 | 0.0 | 0.0 | 0.00 | 0.00 | 0.00 | 1013.8 | ||
| 20260905022107 | 0 | 0.0 | 0.0 | 0.00 | 0.00 | 0.00 | 1013.8 | ||
| 20260905022102 | 0 | 0.0 | 0.0 | 0.00 | 0.00 | 0.00 | 1013.8 | ||
| 20260905021845 | 75 | 35 | 0.0 | 0.0 | 0.00 | 0.00 | 0.00 | 87 | 1013.8 |
| 20260905021820 | 75 | 35 | 0.0 | 0.0 | 0.00 | 0.00 | 0.00 | 87 | 1013.8 |
| 20260905021406 | 75 | 35 | 0.0 | 0.0 | 0.00 | 0.00 | 0.00 | 87 | 1013.8 |
| 20260905021206 | 75 | 35 | 0.0 | 0.0 | 0.00 | 0.00 | 0.00 | 87 | 1013.8 |
| 20260905021114 | 75 | 35 | 0.0 | 0.0 | 0.00 | 0.00 | 0.00 | 87 | 1013.8 |
| 20260905021105 | 75 | 35 | 0.0 | 0.0 | 0.00 | 0.00 | 0.00 | 87 | 1013.8 |
| 20260905020915 | 76 | 35 | 0.0 | 0.0 | 0.00 | 0.00 | 0.00 | 87 | 1013.7 |
| 20260905020900 | 76 | 35 | 0.0 | 0.0 | 0.00 | 0.00 | 0.00 | 88 | 1013.8 |
| 20260905020404 | 76 | 34 | 0.0 | 0.0 | 0.00 | 0.00 | 0.00 | 87 | 1013.7 |
| 20260905020204 | 76 | 35 | 0.0 | 0.0 | 0.00 | 0.00 | 0.00 | 87 | 1013.6 |
| 20260905020117 | 76 | 35 | 0.0 | 0.0 | 0.00 | 0.00 | 0.00 | 87 | 1013.7 |
| 20260905020006 | 76 | 35 | 0.0 | 0.0 | 0.00 | 0.00 | 0.00 | 87 | 1013.7 |
| 20260905015805 | 76 | 35 | 0.0 | 0.0 | 0.00 | 0.00 | 0.00 | 87 | 1013.6 |
| 20260905015714 | 0 | 0.0 | 0.0 | 0.00 | 0.00 | 0.00 | 1013.7 | ||
| 20260905015609 | 0 | 0.0 | 0.0 | 0.00 | 0.00 | 0.00 | 1013.7 | ||
| 20260905015010 | 76 | 35 | 0.0 | 0.0 | 0.00 | 0.00 | 0.00 | 87 | 1013.5 |
| 20260905014804 | 76 | 35 | 0.0 | 0.0 | 0.00 | 0.00 | 0.00 | 86 | 1013.6 |
| 20260905014756 | 76 | 35 | 0.0 | 0.0 | 0.00 | 0.00 | 0.00 | 86 | 1013.5 |
| 20260905014629 | 76 | 35 | 0.0 | 0.0 | 0.00 | 0.00 | 0.00 | 86 | 1013.5 |
| 20260905014404 | 76 | 35 | 0.0 | 0.0 | 0.00 | 0.00 | 0.00 | 86 | 1013.5 |
| 20260905014204 | 76 | 35 | 0.0 | 0.0 | 0.00 | 0.00 | 0.00 | 86 | 1013.4 |
| 20260905014129 | 76 | 35 | 0.0 | 0.0 | 0.00 | 0.00 | 0.00 | 86 | 1013.4 |
| 20260905014006 | 76 | 34 | 0.0 | 0.0 | 0.00 | 0.00 | 0.00 | 86 | 1013.5 |
| 20260905013800 | 77 | 34 | 0.0 | 0.0 | 0.00 | 0.00 | 0.00 | 86 | 1013.5 |
| 20260905013635 | 77 | 34 | 0.0 | 0.0 | 0.00 | 0.00 | 0.00 | 86 | 1013.4 |
| 20260905013559 | 77 | 34 | 0.0 | 0.0 | 0.00 | 0.00 | 0.00 | 86 | 1013.4 |
| 20260905013339 | 77 | 35 | 0.0 | 0.0 | 0.00 | 0.00 | 0.00 | 85 | 1013.4 |
| 20260905013332 | 77 | 35 | 0.0 | 0.0 | 0.00 | 0.00 | 0.00 | 86 | 1013.5 |
| 20260905013131 | 77 | 35 | 0.0 | 0.0 | 0.00 | 0.00 | 0.00 | 85 | 1013.4 |
| 20260905013006 | 77 | 35 | 0.0 | 0.0 | 0.00 | 0.00 | 0.00 | 85 | 1013.5 |
| 20260905012730 | 77 | 34 | 0.0 | 0.0 | 0.00 | 0.00 | 0.00 | 85 | 1013.5 |
| 20260905012630 | 77 | 35 | 0.0 | 0.0 | 0.00 | 0.00 | 0.00 | 85 | 1013.5 |
| 20260905012530 | 77 | 35 | 0.0 | 0.0 | 0.00 | 0.00 | 0.00 | 85 | 1013.5 |
| 20260905012331 | 77 | 35 | 0.0 | 0.0 | 0.00 | 0.00 | 0.00 | 85 | 1013.5 |
| 20260905012121 | 77 | 35 | 0.0 | 0.0 | 0.00 | 0.00 | 0.00 | 85 | 1013.4 |
| 20260905011949 | 77 | 35 | 0.0 | 0.0 | 0.00 | 0.00 | 0.00 | 84 | 1013.4 |
| 20260905011941 | 77 | 34 | 0.0 | 0.0 | 0.00 | 0.00 | 0.00 | 85 | 1013.4 |
| 20260905011629 | 77 | 35 | 0.0 | 0.0 | 0.00 | 0.00 | 0.00 | 84 | 1013.4 |
| 20260905011558 | 78 | 35 | 0.0 | 0.0 | 0.00 | 0.00 | 0.00 | 84 | 1013.4 |
| 20260905011544 | 78 | 35 | 0.0 | 0.0 | 0.00 | 0.00 | 0.00 | 84 | 1013.4 |
| 20260905011419 | 78 | 35 | 0.0 | 0.0 | 0.00 | 0.00 | 0.00 | 84 | 1013.4 |
| 20260905010932 | 78 | 35 | 0.0 | 0.0 | 0.00 | 0.00 | 0.00 | 84 | 1013.4 |
| 20260905010701 | 78 | 35 | 0.0 | 0.0 | 0.00 | 0.00 | 0.00 | 84 | 1013.3 |
| 20260905010620 | 78 | 35 | 0.0 | 0.0 | 0.00 | 0.00 | 0.00 | 84 | 1013.4 |
| 20260905010503 | 78 | 35 | 0.0 | 0.0 | 0.00 | 0.00 | 0.00 | 84 | 1013.4 |
| 20260905010457 | 79 | 34 | 0.0 | 0.0 | 0.00 | 0.00 | 0.00 | 84 | 1013.3 |
| 20260905010453 | 79 | 34 | 0.0 | 0.0 | 0.00 | 0.00 | 0.00 | 84 | 1013.3 |
| 20260905010355 | 78 | 35 | 0.0 | 0.0 | 0.00 | 0.00 | 0.00 | 84 | 1013.3 |
| 20260905005915 | 79 | 35 | 0.0 | 0.0 | 0.00 | 0.00 | 0.00 | 84 | 1013.3 |
| 20260905005758 | 79 | 35 | 0.0 | 0.0 | 0.00 | 0.00 | 0.00 | 83 | 1013.3 |
| 20260905005618 | 79 | 35 | 0.0 | 0.0 | 0.00 | 0.00 | 0.00 | 83 | 1013.3 |
| 20260905005458 | 79 | 37 | 0.0 | 0.0 | 0.00 | 0.00 | 0.00 | 83 | 1013.2 |
| 20260905005453 | 79 | 34 | 0.0 | 0.0 | 0.00 | 0.00 | 0.00 | 82 | 1013.2 |
| 20260905005341 | 79 | 35 | 0.0 | 0.0 | 0.00 | 0.00 | 0.00 | 82 | 1013.1 |
| 20260905005059 | 79 | 35 | 0.0 | 0.0 | 0.00 | 0.00 | 0.00 | 82 | 1013.2 |
| 20260905004935 | 80 | 35 | 0.0 | 0.0 | 0.00 | 0.00 | 0.00 | 82 | 1013.2 |
| 20260905004740 | 80 | 35 | 0.0 | 0.0 | 0.00 | 0.00 | 0.00 | 81 | 1013.1 |
| 20260905004606 | 80 | 35 | 0.0 | 0.0 | 0.00 | 0.00 | 0.00 | 81 | 1013.1 |
| 20260905004440 | 80 | 35 | 0.0 | 0.0 | 0.00 | 0.00 | 0.00 | 81 | 1013.1 |
| 20260905004336 | 80 | 35 | 0.0 | 0.0 | 0.00 | 0.00 | 0.00 | 81 | 1013.1 |
| 20260905004104 | 80 | 34 | 0.0 | 0.0 | 0.00 | 0.00 | 0.00 | 81 | 1013.2 |
| 20260905004036 | 80 | 35 | 0.0 | 0.0 | 0.00 | 0.00 | 0.00 | 81 | 1013.1 |
| 20260905003855 | 80 | 37 | 0.0 | 0.0 | 0.00 | 0.00 | 0.00 | 81 | 1013.2 |
| 20260905003636 | 80 | 35 | 0.0 | 0.0 | 0.00 | 0.00 | 0.00 | 80 | 1013.2 |
| 20260905003602 | 81 | 35 | 0.0 | 0.0 | 0.00 | 0.00 | 0.00 | 80 | 1013.2 |
| 20260905003436 | 81 | 35 | 0.0 | 0.0 | 0.00 | 0.00 | 0.00 | 80 | 1013.1 |
| 20260905003234 | 81 | 34 | 0.0 | 0.0 | 0.00 | 0.00 | 0.00 | 80 | 1013.1 |
| 20260905003104 | 81 | 34 | 0.0 | 0.0 | 0.00 | 0.00 | 0.00 | 80 | 1013.2 |
| 20260905003033 | 81 | 35 | 0.0 | 0.0 | 0.00 | 0.00 | 0.00 | 80 | 1013.2 |
| 20260905002835 | 81 | 35 | 0.0 | 0.0 | 0.00 | 0.00 | 0.00 | 80 | 1013.2 |
| 20260905002726 | 82 | 37 | 0.0 | 0.0 | 0.00 | 0.00 | 0.00 | 80 | 1013.3 |
| 20260905002603 | 82 | 37 | 0.0 | 0.0 | 0.00 | 0.00 | 0.00 | 80 | 1013.3 |
| 20260905002431 | 82 | 37 | 0.0 | 0.0 | 0.00 | 0.00 | 0.00 | 79 | 1013.2 |
| 20260905002230 | 82 | 37 | 0.0 | 0.0 | 0.00 | 0.00 | 0.00 | 79 | 1013.2 |
| 20260905002103 | 82 | 38 | 0.0 | 0.0 | 0.00 | 0.00 | 0.00 | 79 | 1013.2 |
| 20260905002003 | 82 | 37 | 0.0 | 0.0 | 0.00 | 0.00 | 0.00 | 79 | 1013.2 |
| 20260905001919 | 83 | 37 | 0.0 | 0.0 | 0.00 | 0.00 | 0.00 | 78 | 1013.1 |
| 20260905001601 | 83 | 35 | 0.0 | 0.0 | 0.00 | 0.00 | 0.00 | 78 | 1013.1 |
| 20260905001400 | 83 | 37 | 0.0 | 0.0 | 0.00 | 0.00 | 0.00 | 78 | 1013.1 |
| 20260905001325 | 83 | 35 | 0.0 | 0.0 | 0.00 | 0.00 | 0.00 | 77 | 1013.1 |
| 20260905001102 | 83 | 35 | 0.0 | 0.0 | 0.00 | 0.00 | 0.00 | 77 | 1013.1 |
| 20260905001001 | 83 | 37 | 0.0 | 0.0 | 0.00 | 0.00 | 0.00 | 77 | 1013.1 |
| 20260905000853 | 85 | 37 | 0.0 | 0.0 | 0.00 | 0.00 | 0.00 | 75 | 1013.0 |
| 20260905000848 | 85 | 37 | 0.0 | 0.0 | 0.00 | 0.00 | 0.00 | 75 | 1013.0 |
| 20260905000835 | 84 | 38 | 0.0 | 0.0 | 0.00 | 0.00 | 0.00 | 76 | 1013.0 |
| 20260905000744 | 84 | 35 | 0.0 | 0.0 | 0.00 | 0.00 | 0.00 | 76 | 1013.0 |
| 20260905000333 | 85 | 37 | 0.0 | 0.0 | 0.00 | 0.00 | 0.00 | 75 | 1013.0 |
| 20260904235957 | 85 | 37 | 0.0 | 0.0 | 0.00 | 0.00 | 0.00 | 75 | 1013.0 |
| 20260904235933 | 85 | 35 | 0.0 | 0.0 | 0.00 | 0.00 | 0.00 | 74 | 1013.0 |
| 20260904235605 | 86 | 35 | 0.0 | 0.0 | 0.00 | 0.00 | 0.00 | 74 | 1013.1 |
| 20260904235535 | 86 | 37 | 0.0 | 0.0 | 0.00 | 0.00 | 0.00 | 74 | 1013.0 |
| 20260904235333 | 86 | 37 | 0.0 | 0.0 | 0.00 | 0.00 | 0.00 | 76 | 1013.1 |
| 20260904235134 | 86 | 37 | 0.0 | 0.0 | 0.00 | 0.00 | 0.00 | 76 | 1013.0 |
| 20260904235103 | 86 | 37 | 0.0 | 0.0 | 0.00 | 0.00 | 0.00 | 76 | 1013.0 |
| 20260904234932 | 86 | 35 | 0.0 | 0.0 | 0.00 | 0.00 | 0.00 | 75 | 1013.0 |
| 20260904234911 | 86 | 37 | 0.0 | 0.0 | 0.00 | 0.00 | 0.00 | 74 | 1013.1 |
| 20260904234603 | 86 | 37 | 0.0 | 0.0 | 0.00 | 0.00 | 0.00 | 74 | 1013.0 |
| 20260904234530 | 86 | 37 | 0.0 | 0.0 | 0.00 | 0.00 | 0.00 | 74 | 1013.0 |
| 20260904234430 | 86 | 38 | 0.0 | 0.9 | 0.00 | 0.00 | 0.00 | 76 | 1013.0 |
| 20260904234130 | 86 | 37 | 0.0 | 0.9 | 0.00 | 0.00 | 0.00 | 75 | 1013.1 |
| 20260904234110 | 86 | 35 | 0.0 | 0.9 | 0.00 | 0.00 | 0.00 | 75 | 1013.1 |
| 20260904233932 | 86 | 35 | 0.0 | 1.7 | 0.00 | 0.00 | 0.00 | 75 | 1013.1 |
| 20260904233758 | 86 | 35 | 0.0 | 1.7 | 0.00 | 0.00 | 0.00 | 75 | 1013.0 |
| 20260904233516 | 86 | 35 | 0.0 | 1.7 | 0.00 | 0.00 | 0.00 | 74 | 1013.0 |
| 20260904233416 | 86 | 35 | 0.0 | 1.7 | 0.00 | 0.00 | 0.00 | 76 | 1012.9 |
| 20260904233116 | 86 | 35 | 0.0 | 1.7 | 0.00 | 0.00 | 0.00 | 75 | 1012.9 |
| 20260904233046 | 86 | 35 | 0.0 | 1.7 | 0.00 | 0.00 | 0.00 | 75 | 1012.9 |
| 20260904233008 | 86 | 35 | 0.0 | 0.9 | 0.00 | 0.00 | 0.00 | 75 | 1012.9 |
| 20260904232721 | 86 | 32 | 0.0 | 0.9 | 0.00 | 0.00 | 0.00 | 75 | 1013.0 |
| 20260904232506 | 86 | 34 | 0.0 | 0.9 | 0.00 | 0.00 | 0.00 | 75 | 1012.9 |
| 20260904232318 | 86 | 34 | 0.0 | 0.0 | 0.00 | 0.00 | 0.00 | 76 | 1012.9 |
| 20260904232105 | 86 | 34 | 0.0 | 0.0 | 0.00 | 0.00 | 0.00 | 75 | 1012.8 |
| 20260904232033 | 86 | 34 | 0.0 | 0.0 | 0.00 | 0.00 | 0.00 | 75 | 1012.9 |
| 20260904232020 | 86 | 35 | 0.0 | 0.0 | 0.00 | 0.00 | 0.00 | 75 | 1012.9 |
| 20260904231926 | 86 | 34 | 0.0 | 0.0 | 0.00 | 0.00 | 0.00 | 75 | 1012.9 |
| 20260904231918 | 86 | 34 | 0.0 | 0.0 | 0.00 | 0.00 | 0.00 | 76 | 1012.9 |
| 20260904231846 | 86 | 34 | 0.0 | 0.0 | 0.00 | 0.00 | 0.00 | 75 | 1012.9 |
| 20260904231301 | 86 | 35 | 0.0 | 0.0 | 0.00 | 0.00 | 0.00 | 75 | 1012.9 |
| 20260904231100 | 86 | 32 | 0.0 | 0.0 | 0.00 | 0.00 | 0.00 | 74 | 1012.8 |
| 20260904231031 | 86 | 34 | 0.0 | 0.0 | 0.00 | 0.00 | 0.00 | 74 | 1012.8 |
| 20260904230902 | 86 | 38 | 0.0 | 0.0 | 0.00 | 0.00 | 0.00 | 74 | 1012.9 |
| 20260904230836 | 86 | 38 | 0.0 | 0.0 | 0.00 | 0.00 | 0.00 | 75 | 1012.8 |
| 20260904230811 | 86 | 37 | 0.0 | 0.0 | 0.00 | 0.00 | 0.00 | 75 | 1012.9 |
| 20260904230503 | 86 | 37 | 0.0 | 0.0 | 0.00 | 0.00 | 0.00 | 76 | 1012.8 |
| 20260904230301 | 86 | 37 | 0.0 | 0.0 | 0.00 | 0.00 | 0.00 | 77 | 1012.8 |
| 20260904230228 | 85 | 38 | 0.0 | 0.0 | 0.00 | 0.00 | 0.00 | 76 | 1012.7 |
| 20260904230031 | 85 | 38 | 0.0 | 0.0 | 0.00 | 0.00 | 0.00 | 76 | 1012.7 |
| 20260904225927 | 85 | 38 | 0.0 | 0.0 | 0.00 | 0.00 | 0.00 | 75 | 1012.7 |
| 20260904225920 | 85 | 38 | 0.0 | 0.0 | 0.00 | 0.00 | 0.00 | 77 | 1012.7 |
| 20260904225903 | 85 | 38 | 0.0 | 0.0 | 0.00 | 0.00 | 0.00 | 75 | 1012.7 |
| 20260904225431 | 85 | 38 | 0.0 | 0.0 | 0.00 | 0.00 | 0.00 | 77 | 1012.8 |
| 20260904225230 | 85 | 37 | 0.0 | 0.0 | 0.00 | 0.00 | 0.00 | 77 | 1012.7 |
| 20260904225012 | 85 | 37 | 0.0 | 0.0 | 0.00 | 0.00 | 0.00 | 77 | 1012.7 |
| 20260904224803 | 85 | 38 | 0.0 | 0.0 | 0.00 | 0.00 | 0.00 | 77 | 1012.7 |
| 20260904224741 | 85 | 38 | 0.0 | 0.0 | 0.00 | 0.00 | 0.00 | 77 | 1012.7 |
| 20260904224511 | 85 | 37 | 0.0 | 0.9 | 0.00 | 0.00 | 0.00 | 76 | 1012.7 |
| 20260904224406 | 85 | 38 | 0.0 | 0.9 | 0.00 | 0.00 | 0.00 | 76 | 1012.6 |
| 20260904224305 | 86 | 37 | 0.0 | 2.6 | 0.00 | 0.00 | 0.00 | 76 | 1012.7 |
| 20260904224008 | 86 | 37 | 0.0 | 3.5 | 0.00 | 0.00 | 0.00 | 76 | 1012.6 |
| 20260904223806 | 86 | 37 | 0.0 | 3.5 | 0.00 | 0.00 | 0.00 | 76 | 1012.6 |
| 20260904223607 | 86 | 37 | 0.0 | 3.5 | 0.00 | 0.00 | 0.00 | 76 | 1012.6 |
| 20260904223515 | 86 | 38 | 0.0 | 3.5 | 0.00 | 0.00 | 0.00 | 76 | 1012.5 |
| 20260904223404 | 86 | 37 | 0.0 | 3.5 | 0.00 | 0.00 | 0.00 | 76 | 1012.6 |
| 20260904223305 | 86 | 31 | 0.0 | 3.5 | 0.00 | 0.00 | 0.00 | 76 | 1012.7 |
| 20260904223006 | 86 | 17 | 0.0 | 1.7 | 0.00 | 0.00 | 0.00 | 76 | 1012.6 |
| 20260904222816 | 86 | 17 | 0.0 | 1.7 | 0.00 | 0.00 | 0.00 | 76 | 1012.6 |
| 20260904222604 | 86 | 17 | 0.0 | 1.7 | 0.00 | 0.00 | 0.00 | 76 | 1012.6 |
| 20260904222545 | 86 | 14 | 0.0 | 1.7 | 0.00 | 0.00 | 0.00 | 75 | 1012.7 |
| 20260904222513 | 86 | 16 | 0.0 | 1.7 | 0.00 | 0.00 | 0.00 | 76 | 1012.7 |
| 20260904222205 | 86 | 14 | 0.0 | 0.9 | 0.00 | 0.00 | 0.00 | 77 | 1012.6 |
| 20260904222111 | 86 | 14 | 0.0 | 2.6 | 0.00 | 0.00 | 0.00 | 76 | 1012.6 |
| 20260904222006 | 86 | 14 | 0.0 | 2.6 | 0.00 | 0.00 | 0.00 | 76 | 1012.6 |
| 20260904221803 | 86 | 13 | 0.0 | 2.6 | 0.00 | 0.00 | 0.00 | 77 | 1012.6 |
| 20260904221604 | 87 | 13 | 0.0 | 2.6 | 0.00 | 0.00 | 0.00 | 75 | 1012.5 |
| 20260904221543 | 87 | 13 | 0.0 | 2.6 | 0.00 | 0.00 | 0.00 | 75 | 1012.6 |
| 20260904221408 | 87 | 13 | 0.0 | 2.6 | 0.00 | 0.00 | 0.00 | 75 | 1012.5 |
| 20260904221155 | 87 | 14 | 0.0 | 2.6 | 0.00 | 0.00 | 0.00 | 75 | 1012.5 |
| 20260904221104 | 87 | 324 | 0.0 | 0.0 | 0.00 | 0.00 | 0.00 | 76 | 1012.3 |
| 20260904221002 | 87 | 324 | 0.0 | 0.0 | 0.00 | 0.00 | 0.00 | 76 | 1012.3 |
| 20260904220746 | 0 | 0.0 | 0.0 | 0.00 | 0.00 | 0.00 | |||
| 20260904220635 | 0 | 0.0 | 0.0 | 0.00 | 0.00 | 0.00 | |||
| 20260904220550 | 0 | 0.0 | 0.0 | 0.00 | 0.00 | 0.00 | |||
| 20260904220238 | 0 | 0.0 | 0.0 | 0.00 | 0.00 | 0.00 | |||
| 20260904220009 | 0 | 0.0 | 0.0 | 0.00 | 0.00 | 0.00 | |||
| 20260904215812 | 0 | 0.0 | 0.0 | 0.00 | 0.00 | 0.00 | |||
| 20260904215710 | 0 | 0.0 | 0.0 | 0.00 | 0.00 | 0.00 | 1012.2 | ||
| 20260904215620 | 0 | 0.0 | 0.0 | 0.00 | 0.00 | 0.00 | 1012.2 | ||
| 20260904215507 | 0 | 0.0 | 0.0 | 0.00 | 0.00 | 0.00 | 1012.2 | ||
| 20260904215202 | 0 | 0.0 | 0.0 | 0.00 | 0.00 | 0.00 | 1012.2 | ||
| 20260904215136 | 87 | 11 | 0.0 | 1.7 | 0.00 | 0.00 | 0.00 | 74 | 1012.2 |
| 20260904215050 | 87 | 11 | 0.0 | 2.6 | 0.00 | 0.00 | 0.00 | 74 | 1012.2 |
| 20260904214949 | 87 | 11 | 0.0 | 2.6 | 0.00 | 0.00 | 0.00 | 74 | 1012.1 |
| 20260904214928 | 87 | 11 | 0.0 | 2.6 | 0.00 | 0.00 | 0.00 | 74 | 1012.2 |
| 20260904214531 | 87 | 11 | 0.0 | 3.5 | 0.00 | 0.00 | 0.00 | 74 | 1012.2 |
| 20260904214328 | 87 | 11 | 0.0 | 3.5 | 0.00 | 0.00 | 0.00 | 74 | 1012.2 |
| 20260904214124 | 87 | 13 | 0.0 | 3.5 | 0.00 | 0.00 | 0.00 | 74 | 1012.1 |
| 20260904214056 | 88 | 13 | 0.0 | 3.5 | 0.00 | 0.00 | 0.00 | 73 | 1012.2 |
| 20260904213924 | 87 | 13 | 0.0 | 3.5 | 0.00 | 0.00 | 0.00 | 74 | 1012.2 |
| 20260904213918 | 88 | 37 | 0.0 | 2.6 | 0.00 | 0.00 | 0.00 | 74 | 1012.2 |
| 20260904213549 | 88 | 44 | 0.0 | 3.5 | 0.00 | 0.00 | 0.00 | 75 | 1012.3 |
| 20260904213306 | 88 | 41 | 0.0 | 3.5 | 0.00 | 0.00 | 0.00 | 74 | 1012.2 |
| 20260904213135 | 88 | 42 | 0.0 | 3.5 | 0.00 | 0.00 | 0.00 | 73 | 1012.2 |
| 20260904213106 | 88 | 52 | 0.0 | 3.5 | 0.00 | 0.00 | 0.00 | 73 | 1012.2 |
| 20260904213006 | 88 | 48 | 0.0 | 3.5 | 0.00 | 0.00 | 0.00 | 75 | 1012.2 |
| 20260904212957 | 88 | 48 | 0.0 | 3.5 | 0.00 | 0.00 | 0.00 | 75 | 1012.2 |
| 20260904212850 | 88 | 48 | 0.0 | 3.5 | 0.00 | 0.00 | 0.00 | 75 | 1012.2 |
| 20260904212551 | 88 | 45 | 0.0 | 2.6 | 0.00 | 0.00 | 0.00 | 73 | 1012.2 |
| 20260904212343 | 88 | 124 | 0.0 | 2.6 | 0.00 | 0.00 | 0.00 | 76 | 1012.3 |
| 20260904212131 | 88 | 0 | 0.0 | 2.6 | 0.00 | 0.00 | 0.00 | 76 | 1012.2 |
| 20260904212030 | 88 | 0 | 0.0 | 3.5 | 0.00 | 0.00 | 0.00 | 76 | 1012.2 |
| 20260904211902 | 88 | 0 | 0.0 | 3.5 | 0.00 | 0.00 | 0.00 | 76 | 1012.2 |
| 20260904211630 | 88 | 0 | 0.0 | 3.5 | 0.00 | 0.00 | 0.00 | 76 | 1012.2 |
| 20260904211430 | 88 | 13 | 0.0 | 3.5 | 0.00 | 0.00 | 0.00 | 75 | 1012.2 |
| 20260904211235 | 88 | 92 | 0.0 | 3.5 | 0.00 | 0.00 | 0.00 | 74 | 1012.3 |
| 20260904211146 | 89 | 49 | 0.0 | 2.6 | 0.00 | 0.00 | 0.00 | 75 | 1012.2 |
| 20260904211135 | 88 | 96 | 0.0 | 3.5 | 0.00 | 0.00 | 0.00 | 75 | 1012.3 |
| 20260904210832 | 89 | 49 | 0.0 | 2.6 | 0.00 | 0.00 | 0.00 | 75 | 1012.2 |
| 20260904210749 | 89 | 49 | 0.0 | 2.6 | 0.00 | 0.00 | 0.00 | 75 | 1012.3 |
| 20260904210644 | 89 | 49 | 0.0 | 2.6 | 0.00 | 0.00 | 0.00 | 75 | 1012.3 |
| 20260904210430 | 88 | 51 | 0.0 | 2.6 | 0.00 | 0.00 | 0.00 | 74 | 1012.2 |
| 20260904210349 | 88 | 165 | 0.0 | 2.6 | 0.00 | 0.00 | 0.00 | 74 | 1012.3 |
| 20260904210128 | 88 | 165 | 0.0 | 2.6 | 0.00 | 0.00 | 0.00 | 74 | 1012.3 |
| 20260904210030 | 88 | 166 | 0.0 | 2.6 | 0.00 | 0.00 | 0.00 | 75 | 1012.2 |
| 20260904205835 | 88 | 166 | 0.0 | 2.6 | 0.00 | 0.00 | 0.00 | 77 | 1012.4 |
| 20260904205628 | 88 | 166 | 0.0 | 2.6 | 0.00 | 0.00 | 0.00 | 76 | 1012.3 |
| 20260904205447 | 88 | 169 | 0.0 | 2.6 | 0.00 | 0.00 | 0.00 | 76 | 1012.4 |
| 20260904205406 | 88 | 168 | 0.0 | 1.7 | 0.00 | 0.00 | 0.00 | 75 | 1012.4 |
| 20260904205129 | 88 | 168 | 0.0 | 1.7 | 0.00 | 0.00 | 0.00 | 75 | 1012.3 |
| 20260904205028 | 88 | 166 | 0.0 | 1.7 | 0.00 | 0.00 | 0.00 | 75 | 1012.4 |
| 20260904204932 | 89 | 149 | 0.0 | 1.7 | 0.00 | 0.00 | 0.00 | 76 | 1012.4 |
| 20260904204633 | 88 | 134 | 0.0 | 1.7 | 0.00 | 0.00 | 0.00 | 75 | 1012.3 |
| 20260904204432 | 89 | 203 | 0.0 | 1.7 | 0.00 | 0.00 | 0.00 | 75 | 1012.3 |
| 20260904204228 | 88 | 203 | 0.0 | 1.7 | 0.00 | 0.00 | 0.00 | 75 | 1012.3 |
| 20260904204128 | 88 | 203 | 0.0 | 1.7 | 0.00 | 0.00 | 0.00 | 75 | 1012.3 |
| 20260904204013 | 88 | 203 | 0.0 | 4.3 | 0.00 | 0.00 | 0.00 | 75 | 1012.2 |
| 20260904203910 | 88 | 203 | 0.0 | 4.3 | 0.00 | 0.00 | 0.00 | 77 | 1012.2 |
| 20260904203611 | 88 | 203 | 0.0 | 4.3 | 0.00 | 0.00 | 0.00 | 76 | 1012.3 |
| 20260904203502 | 88 | 203 | 0.0 | 4.3 | 0.00 | 0.00 | 0.00 | 78 | 1012.3 |
| 20260904203221 | 87 | 203 | 0.0 | 4.3 | 0.00 | 0.00 | 0.00 | 77 | 1012.4 |
| 20260904203105 | 87 | 199 | 0.0 | 3.5 | 0.00 | 0.00 | 0.00 | 76 | 1012.3 |
| 20260904203005 | 88 | 54 | 0.0 | 2.6 | 0.00 | 0.00 | 0.00 | 78 | 1012.4 |
| 20260904202802 | 88 | 52 | 0.0 | 2.6 | 0.00 | 0.00 | 0.00 | 79 | 1012.5 |
| 20260904202606 | 88 | 58 | 0.0 | 2.6 | 0.00 | 0.00 | 0.00 | 76 | 1012.4 |
| 20260904202458 | 88 | 55 | 0.0 | 2.6 | 0.00 | 0.00 | 0.00 | 77 | 1012.3 |
| 20260904202203 | 88 | 48 | 0.0 | 2.6 | 0.00 | 0.00 | 0.00 | 78 | 1012.4 |
| 20260904202103 | 88 | 48 | 0.0 | 3.5 | 0.00 | 0.00 | 0.00 | 79 | 1012.4 |
| 20260904202002 | 87 | 49 | 0.0 | 3.5 | 0.00 | 0.00 | 0.00 | 78 | 1012.3 |
| 20260904201804 | 87 | 49 | 0.0 | 3.5 | 0.00 | 0.00 | 0.00 | 78 | 1012.3 |
| 20260904201605 | 87 | 69 | 0.0 | 3.5 | 0.00 | 0.00 | 0.00 | 79 | 1012.3 |
| 20260904201502 | 87 | 65 | 0.0 | 3.5 | 0.00 | 0.00 | 0.00 | 77 | 1012.3 |
| 20260904201215 | 87 | 55 | 0.0 | 3.5 | 0.00 | 0.00 | 0.00 | 77 | 1012.3 |
| 20260904201106 | 88 | 37 | 0.0 | 3.5 | 0.00 | 0.00 | 0.00 | 78 | 1012.3 |
| 20260904201102 | 88 | 196 | 0.0 | 3.5 | 0.00 | 0.00 | 0.00 | 79 | 1012.4 |
| 20260904200802 | 87 | 27 | 0.0 | 3.5 | 0.00 | 0.00 | 0.00 | 77 | 1012.3 |
| 20260904200619 | 87 | 27 | 0.0 | 3.5 | 0.00 | 0.00 | 0.00 | 78 | 1012.4 |
| 20260904200418 | 87 | 83 | 0.0 | 3.5 | 0.00 | 0.00 | 0.00 | 79 | 1012.3 |
| 20260904200207 | 87 | 0 | 0.0 | 3.5 | 0.00 | 0.00 | 0.00 | 79 | 1012.2 |
| 20260904200153 | 87 | 0 | 0.0 | 2.6 | 0.00 | 0.00 | 0.00 | 78 | 1012.2 |
| 20260904200115 | 87 | 34 | 0.0 | 3.5 | 0.00 | 0.00 | 0.00 | 78 | 1012.2 |
| 20260904195802 | 87 | 18 | 0.0 | 2.6 | 0.00 | 0.00 | 0.00 | 79 | 1012.3 |
| 20260904195708 | 87 | 0 | 0.0 | 3.5 | 0.00 | 0.00 | 0.00 | 78 | 1012.3 |
| 20260904195604 | 87 | 0 | 0.0 | 3.5 | 0.00 | 0.00 | 0.00 | 78 | 1012.3 |
| 20260904195508 | 87 | 21 | 0.0 | 5.2 | 0.00 | 0.00 | 0.00 | 77 | 1012.3 |
| 20260904195447 | 87 | 0 | 0.0 | 5.2 | 0.00 | 0.00 | 0.00 | 79 | 1012.2 |
| 20260904195419 | 87 | 23 | 0.0 | 5.2 | 0.00 | 0.00 | 0.00 | 78 | 1012.3 |
| 20260904195003 | 87 | 35 | 0.0 | 5.2 | 0.00 | 0.00 | 0.00 | 81 | 1012.3 |
| 20260904194803 | 87 | 34 | 0.0 | 5.2 | 0.00 | 0.00 | 0.00 | 80 | 1012.4 |
| 20260904194707 | 87 | 42 | 0.0 | 5.2 | 0.00 | 0.00 | 0.00 | 78 | 1012.3 |
| 20260904194604 | 87 | 42 | 0.0 | 5.2 | 0.00 | 0.00 | 0.00 | 78 | 1012.3 |
| 20260904194504 | 86 | 34 | 0.0 | 5.2 | 0.00 | 0.00 | 0.00 | 81 | 1012.4 |
| 20260904194442 | 87 | 48 | 0.0 | 5.2 | 0.00 | 0.00 | 0.00 | 79 | 1012.4 |
| 20260904194410 | 86 | 31 | 0.0 | 5.2 | 0.00 | 0.00 | 0.00 | 81 | 1012.3 |
| 20260904194005 | 86 | 34 | 0.0 | 5.2 | 0.00 | 0.00 | 0.00 | 81 | 1012.4 |
| 20260904193803 | 86 | 144 | 0.0 | 4.3 | 0.00 | 0.00 | 0.00 | 79 | 1012.4 |
| 20260904193611 | 87 | 66 | 0.0 | 4.3 | 0.00 | 0.00 | 0.00 | 77 | 1012.4 |
| 20260904193546 | 87 | 24 | 0.0 | 3.5 | 0.00 | 0.00 | 0.00 | 80 | 1012.4 |
| 20260904193534 | 87 | 68 | 0.0 | 4.3 | 0.00 | 0.00 | 0.00 | 80 | 1012.4 |
| 20260904193412 | 87 | 23 | 0.0 | 3.5 | 0.00 | 0.00 | 0.00 | 79 | 1012.4 |
| 20260904193407 | 87 | 3 | 0.0 | 2.6 | 0.00 | 0.00 | 0.00 | 80 | 1012.4 |
| 20260904192952 | 87 | 23 | 0.0 | 3.5 | 0.00 | 0.00 | 0.00 | 79 | 1012.5 |
| 20260904192754 | 87 | 23 | 0.0 | 3.5 | 0.00 | 0.00 | 0.00 | 80 | 1012.4 |
| 20260904192531 | 87 | 16 | 0.0 | 3.5 | 0.00 | 0.00 | 0.00 | 80 | 1012.4 |
| 20260904192351 | 87 | 16 | 0.0 | 3.5 | 0.00 | 0.00 | 0.00 | 80 | 1012.3 |
| 20260904192151 | 87 | 20 | 0.0 | 4.3 | 0.00 | 0.00 | 0.00 | 80 | 1012.3 |
| 20260904192143 | 86 | 75 | 0.0 | 4.3 | 0.00 | 0.00 | 0.00 | 81 | 1012.3 |
| 20260904192031 | 86 | 21 | 0.0 | 4.3 | 0.00 | 0.00 | 0.00 | 81 | 1012.4 |
| 20260904191850 | 86 | 79 | 0.0 | 4.3 | 0.00 | 0.00 | 0.00 | 80 | 1012.3 |
| 20260904191532 | 86 | 337 | 0.0 | 4.3 | 0.00 | 0.00 | 0.00 | 80 | 1012.4 |
| 20260904191339 | 86 | 337 | 0.0 | 4.3 | 0.00 | 0.00 | 0.00 | 80 | 1012.4 |
| 20260904191140 | 86 | 24 | 0.0 | 3.5 | 0.00 | 0.00 | 0.00 | 80 | 1012.4 |
| 20260904191029 | 86 | 154 | 0.0 | 3.5 | 0.00 | 0.00 | 0.00 | 80 | 1012.5 |
| 20260904190937 | 86 | 45 | 0.0 | 3.5 | 0.00 | 0.00 | 0.00 | 81 | 1012.3 |
| 20260904190741 | 86 | 45 | 0.0 | 4.3 | 0.00 | 0.00 | 0.00 | 78 | 1012.4 |
| 20260904190540 | 87 | 0 | 0.0 | 4.3 | 0.00 | 0.00 | 0.00 | 80 | 1012.4 |
| 20260904190338 | 87 | 353 | 0.0 | 4.3 | 0.00 | 0.00 | 0.00 | 81 | 1012.4 |
| 20260904190136 | 87 | 31 | 0.0 | 4.3 | 0.00 | 0.00 | 0.00 | 80 | 1012.3 |
| 20260904190111 | 87 | 18 | 0.0 | 4.3 | 0.00 | 0.00 | 0.00 | 77 | 1012.4 |
| 20260904190029 | 87 | 31 | 0.0 | 4.3 | 0.00 | 0.00 | 0.00 | 78 | 1012.4 |
| 20260904185740 | 88 | 188 | 0.0 | 3.5 | 0.00 | 0.00 | 0.00 | 80 | 1012.4 |
| 20260904185658 | 88 | 8 | 0.0 | 3.5 | 0.00 | 0.00 | 0.00 | 82 | 1012.4 |
| 20260904185529 | 88 | 8 | 0.0 | 3.5 | 0.00 | 0.00 | 0.00 | 80 | 1012.4 |
| 20260904185336 | 88 | 10 | 0.0 | 3.5 | 0.00 | 0.00 | 0.00 | 79 | 1012.3 |
| 20260904185206 | 87 | 21 | 0.0 | 3.5 | 0.00 | 0.00 | 0.00 | 82 | 1012.4 |
| 20260904185043 | 87 | 21 | 0.0 | 3.5 | 0.00 | 0.00 | 0.00 | 82 | 1012.4 |
| 20260904184931 | 87 | 21 | 0.0 | 3.5 | 0.00 | 0.00 | 0.00 | 82 | 1012.2 |
| 20260904184730 | 0 | 23 | 0.0 | 0.0 | 0.00 | 0.00 | 0.00 | 1012.3 | |
| 20260904184704 | 0 | 0.0 | 0.0 | 0.00 | 0.00 | 0.00 | 1012.3 | ||
| 20260904184602 | 0 | 0.0 | 0.0 | 0.00 | 0.00 | 0.00 | 1012.3 | ||
| 20260904184307 | 0 | 0.0 | 0.0 | 0.00 | 0.00 | 0.00 | |||
| 20260904184207 | 0 | 0.0 | 0.0 | 0.00 | 0.00 | 0.00 | |||
| 20260904183909 | 0 | 0.0 | 0.0 | 0.00 | 0.00 | 0.00 | |||
| 20260904183726 | 0 | 0.0 | 0.0 | 0.00 | 0.00 | 0.00 | |||
| 20260904183722 | 0 | 0.0 | 0.0 | 0.00 | 0.00 | 0.00 | |||
| 20260904183650 | 0 | 0.0 | 0.0 | 0.00 | 0.00 | 0.00 | |||
| 20260904183259 | 0 | 0.0 | 0.0 | 0.00 | 0.00 | 0.00 | 1012.4 | ||
| 20260904183234 | 0 | 0.0 | 0.0 | 0.00 | 0.00 | 0.00 | 1012.4 | ||
| 20260904183206 | 0 | 0.0 | 0.0 | 0.00 | 0.00 | 0.00 | 1012.4 | ||
| 20260904182836 | 0 | 0.0 | 0.0 | 0.00 | 0.00 | 0.00 | 1012.4 | ||
| 20260904182711 | 87 | 27 | 0.0 | 1.7 | 0.00 | 0.00 | 0.00 | 81 | 1012.4 |
| 20260904182519 | 87 | 27 | 0.0 | 4.3 | 0.00 | 0.00 | 0.00 | 81 | 1012.4 |
| 20260904182411 | 87 | 27 | 0.0 | 4.3 | 0.00 | 0.00 | 0.00 | 81 | 1012.4 |
| 20260904182159 | 87 | 27 | 0.0 | 4.3 | 0.00 | 0.00 | 0.00 | 81 | 1012.3 |
| 20260904182142 | 87 | 27 | 0.0 | 4.3 | 0.00 | 0.00 | 0.00 | 81 | 1012.4 |
| 20260904182112 | 87 | 27 | 0.0 | 4.3 | 0.00 | 0.00 | 0.00 | 81 | 1012.3 |
| 20260904181742 | 87 | 27 | 0.0 | 4.3 | 0.00 | 0.00 | 0.00 | 81 | 1012.3 |
| 20260904181542 | 87 | 27 | 0.0 | 4.3 | 0.00 | 0.00 | 0.00 | 81 | 1012.4 |
| 20260904181344 | 87 | 28 | 0.0 | 2.6 | 0.00 | 0.00 | 0.00 | 81 | 1012.4 |
| 20260904181204 | 87 | 41 | 0.0 | 2.6 | 0.00 | 0.00 | 0.00 | 80 | 1012.3 |
| 20260904181143 | 87 | 18 | 0.0 | 2.6 | 0.00 | 0.00 | 0.00 | 81 | 1012.2 |
| 20260904181120 | 87 | 41 | 0.0 | 2.6 | 0.00 | 0.01 | 0.00 | 80 | 1012.2 |
| 20260904180742 | 87 | 42 | 0.0 | 2.6 | 0.00 | 0.01 | 0.00 | 80 | 1012.2 |
| 20260904180642 | 0 | 25 | 0.0 | 0.0 | 0.00 | 0.00 | 0.00 | 1012.3 | |
| 20260904180337 | 0 | 0.0 | 0.0 | 0.00 | 0.00 | 0.00 | 1012.2 | ||
| 20260904180043 | 0 | 0.0 | 0.0 | 0.00 | 0.00 | 0.00 | |||
| 20260904180024 | 0 | 0.0 | 0.0 | 0.00 | 0.00 | 0.00 | |||
| 20260904175607 | 0 | 0.0 | 0.0 | 0.00 | 0.00 | 0.00 | |||
| 20260904175510 | 0 | 0.0 | 0.0 | 0.00 | 0.00 | 0.00 | |||
| 20260904175306 | 0 | 0.0 | 0.0 | 0.00 | 0.00 | 0.00 | |||
| 20260904175206 | 0 | 0.0 | 0.0 | 0.00 | 0.00 | 0.00 | |||
| 20260904175108 | 0 | 0.0 | 0.0 | 0.00 | 0.00 | 0.00 | |||
| 20260904174736 | 0 | 0.0 | 0.0 | 0.00 | 0.00 | 0.00 | 1012.1 | ||
| 20260904174535 | 0 | 0.0 | 0.0 | 0.00 | 0.00 | 0.00 | 1012.1 | ||
| 20260904174437 | 0 | 0.0 | 0.0 | 0.00 | 0.00 | 0.00 | 1012.1 | ||
| 20260904174233 | 0 | 0.0 | 0.0 | 0.00 | 0.00 | 0.00 | 1012.1 | ||
| 20260904174134 | 0 | 0.0 | 0.0 | 0.00 | 0.00 | 0.00 | 1012.1 | ||
| 20260904173933 | 0 | 0.0 | 0.0 | 0.00 | 0.00 | 0.00 | 1012.1 | ||
| 20260904173735 | 0 | 0.0 | 0.0 | 0.00 | 0.00 | 0.00 | 1012.1 | ||
| 20260904173439 | 0 | 0.0 | 0.0 | 0.00 | 0.31 | 0.00 | |||
| 20260904173334 | 0 | 0.0 | 0.0 | 0.00 | 0.31 | 0.00 | |||
| 20260904173039 | 0 | 0.0 | 0.0 | 0.00 | 0.31 | 0.00 | |||
| 20260904172942 | 0 | 0.0 | 0.0 | 0.00 | 0.31 | 0.00 | |||
| 20260904172934 | 0 | 0.0 | 0.0 | 0.00 | 0.31 | 0.00 | |||
| 20260904172607 | 0 | 0.0 | 0.0 | 0.00 | 0.31 | 0.00 | |||
| 20260904172407 | 0 | 0.0 | 0.0 | 0.00 | 0.31 | 0.00 | |||
| 20260904172209 | 0 | 0.0 | 0.0 | 0.00 | 0.31 | 0.00 | 1011.8 | ||
| 20260904171940 | 0 | 0.0 | 0.0 | 0.00 | 0.31 | 0.00 | 1011.8 | ||
| 20260904171917 | 89 | 18 | 0.0 | 1.7 | 0.00 | 0.31 | 0.00 | 77 | 1011.8 |
| 20260904171834 | 89 | 18 | 0.0 | 1.7 | 0.00 | 0.31 | 0.00 | 77 | 1011.8 |
| 20260904171535 | 89 | 18 | 0.0 | 3.5 | 0.00 | 0.31 | 0.00 | 77 | 1011.8 |
| 20260904171435 | 89 | 18 | 0.0 | 3.5 | 0.00 | 0.31 | 0.00 | 77 | 1011.8 |
| 20260904171416 | 89 | 18 | 0.0 | 3.5 | 0.00 | 0.31 | 0.00 | 77 | 1011.8 |
| 20260904171147 | 89 | 7 | 0.0 | 3.5 | 0.00 | 0.31 | 0.00 | 77 | 1011.7 |
| 20260904171141 | 89 | 18 | 0.0 | 3.5 | 0.00 | 0.31 | 0.00 | 77 | 1011.8 |
| 20260904171124 | 89 | 18 | 0.0 | 3.5 | 0.00 | 0.31 | 0.00 | 77 | 1011.7 |
| 20260904170712 | 89 | 41 | 0.0 | 3.5 | 0.00 | 0.31 | 0.00 | 77 | 1011.6 |
| 20260904170514 | 89 | 38 | 0.0 | 2.6 | 0.00 | 0.31 | 0.00 | 77 | 1011.7 |
| 20260904170408 | 89 | 39 | 0.0 | 2.6 | 0.00 | 0.31 | 0.00 | 76 | 1011.8 |
| 20260904170312 | 89 | 39 | 0.0 | 3.5 | 0.00 | 0.31 | 0.00 | 76 | 1011.8 |
| 20260904170107 | 89 | 25 | 0.0 | 4.3 | 0.00 | 0.31 | 0.00 | 76 | 1011.8 |
| 20260904170044 | 89 | 327 | 0.0 | 4.3 | 0.00 | 0.31 | 0.00 | 77 | 1011.8 |
| 20260904165842 | 89 | 327 | 0.0 | 4.3 | 0.00 | 0.31 | 0.00 | 77 | 1011.8 |
| 20260904165639 | 89 | 324 | 0.0 | 4.3 | 0.00 | 0.31 | 0.00 | 76 | 1011.7 |
| 20260904165435 | 89 | 39 | 0.0 | 4.3 | 0.00 | 0.32 | 0.00 | 75 | 1011.7 |
| 20260904165339 | 89 | 55 | 0.0 | 4.3 | 0.00 | 0.32 | 0.00 | 75 | 1011.7 |
| 20260904165209 | 89 | 42 | 0.0 | 2.6 | 0.00 | 0.32 | 0.00 | 80 | 1011.7 |
| 20260904165010 | 89 | 179 | 0.0 | 2.6 | 0.00 | 0.33 | 0.00 | 80 | 1011.7 |
| 20260904164808 | 89 | 182 | 0.0 | 2.6 | 0.00 | 0.33 | 0.00 | 78 | 1011.6 |
| 20260904164620 | 88 | 179 | 0.0 | 2.6 | 0.00 | 0.33 | 0.00 | 79 | 1011.8 |
| 20260904164608 | 89 | 179 | 0.0 | 2.6 | 0.00 | 0.33 | 0.00 | 79 | 1011.8 |
| 20260904164315 | 88 | 178 | 0.0 | 2.6 | 0.00 | 0.33 | 0.00 | 78 | 1011.7 |
| 20260904164212 | 88 | 180 | 0.0 | 2.6 | 0.00 | 0.33 | 0.00 | 79 | 1011.7 |
| 20260904164007 | 88 | 147 | 0.0 | 1.7 | 0.00 | 0.34 | 0.00 | 79 | 1011.7 |
| 20260904163813 | 88 | 152 | 0.0 | 2.6 | 0.00 | 0.38 | 0.00 | 79 | 1011.7 |
| 20260904163807 | 88 | 151 | 0.0 | 2.6 | 0.00 | 0.38 | 0.00 | 79 | 1011.8 |
| 20260904163609 | 88 | 148 | 0.0 | 2.6 | 0.00 | 0.39 | 0.00 | 79 | 1011.7 |
| 20260904163402 | 88 | 148 | 0.0 | 2.6 | 0.00 | 0.40 | 0.00 | 79 | 1011.7 |
| 20260904163317 | 88 | 113 | 0.0 | 2.6 | 0.00 | 0.41 | 0.00 | 79 | 1011.7 |
| 20260904163208 | 88 | 164 | 0.0 | 2.6 | 0.00 | 0.44 | 0.00 | 80 | 1011.6 |
| 20260904163203 | 88 | 113 | 0.0 | 2.6 | 0.00 | 0.42 | 0.00 | 81 | 1011.7 |
| 20260904162805 | 88 | 147 | 0.0 | 1.7 | 0.00 | 0.45 | 0.00 | 81 | 1011.6 |
| 20260904162603 | 87 | 145 | 0.0 | 1.7 | 0.00 | 0.46 | 0.00 | 81 | 1011.6 |
| 20260904162406 | 87 | 145 | 0.0 | 1.7 | 0.00 | 0.47 | 0.00 | 81 | 1011.5 |
| 20260904162311 | 87 | 355 | 0.0 | 1.7 | 0.00 | 0.47 | 0.00 | 80 | 1011.5 |
| 20260904162207 | 0 | 354 | 0.0 | 0.0 | 0.00 | 0.48 | 0.00 | 1011.6 | |
| 20260904162006 | 0 | 42 | 0.0 | 0.0 | 0.00 | 0.48 | 0.00 | 1011.5 | |
| 20260904161909 | 0 | 0.0 | 0.0 | 0.00 | 0.00 | 0.00 | 1011.5 | ||
| 20260904161808 | 0 | 0.0 | 0.0 | 0.00 | 0.00 | 0.00 | 1011.5 | ||
| 20260904161528 | 0 | 0.0 | 0.0 | 0.00 | 0.00 | 0.00 | |||
| 20260904161231 | 0 | 0.0 | 0.0 | 0.00 | 0.00 | 0.00 | |||
| 20260904161031 | 0 | 0.0 | 0.0 | 0.00 | 0.00 | 0.00 | |||
| 20260904160832 | 0 | 0.0 | 0.0 | 0.00 | 0.00 | 0.00 | |||
| 20260904160703 | 0 | 0.0 | 0.0 | 0.00 | 0.00 | 0.00 | |||
| 20260904160634 | 0 | 0.0 | 0.0 | 0.00 | 0.00 | 0.00 | |||
| 20260904160434 | 0 | 0.0 | 0.0 | 0.00 | 0.00 | 0.00 | |||
| 20260904160342 | 0 | 0.0 | 0.0 | 0.00 | 0.00 | 0.00 | 1011.5 | ||
| 20260904160202 | 0 | 0.0 | 0.0 | 0.00 | 0.00 | 0.00 | 1011.5 | ||
| 20260904160133 | 0 | 0.0 | 0.0 | 0.00 | 0.00 | 0.00 | 1011.5 | ||
| 20260904155807 | 0 | 0.0 | 0.0 | 0.00 | 0.00 | 0.00 | 1011.5 | ||
| 20260904155709 | 0 | 0.0 | 0.0 | 0.00 | 0.00 | 0.00 | 1011.5 | ||
| 20260904155606 | 0 | 0.0 | 0.0 | 0.00 | 0.00 | 0.00 | 1011.5 | ||
| 20260904155402 | 0 | 0.0 | 0.0 | 0.00 | 0.00 | 0.00 | 1011.4 | ||
| 20260904155205 | 0 | 0.0 | 0.0 | 0.00 | 0.00 | 0.00 | 1011.4 | ||
| 20260904154836 | 0 | 0.0 | 0.0 | 0.00 | 0.48 | 0.00 | |||
| 20260904154734 | 0 | 0.0 | 0.0 | 0.00 | 0.48 | 0.00 | |||
| 20260904154534 | 0 | 0.0 | 0.0 | 0.00 | 0.48 | 0.00 | |||
| 20260904154436 | 0 | 0.0 | 0.0 | 0.00 | 0.48 | 0.00 | |||
| 20260904154255 | 0 | 0.0 | 0.0 | 0.00 | 0.48 | 0.00 | |||
| 20260904154235 | 0 | 0.0 | 0.0 | 0.00 | 0.48 | 0.00 | |||
| 20260904154209 | 0 | 0.0 | 0.0 | 0.00 | 0.48 | 0.00 | |||
| 20260904153807 | 0 | 0.0 | 0.0 | 0.00 | 0.48 | 0.00 | 1011.2 | ||
| 20260904153607 | 0 | 0.0 | 0.0 | 0.00 | 0.48 | 0.00 | 1011.2 | ||
| 20260904153407 | 0 | 0.0 | 0.0 | 0.00 | 0.48 | 0.00 | 1011.2 | ||
| 20260904153236 | 85 | 216 | 0.0 | 1.7 | 0.00 | 0.48 | 0.00 | 85 | 1011.2 |
| 20260904153206 | 85 | 216 | 0.0 | 1.7 | 0.00 | 0.48 | 0.00 | 85 | 1011.2 |
| 20260904153158 | 85 | 216 | 0.0 | 0.0 | 0.00 | 0.48 | 0.00 | 85 | 1011.2 |
| 20260904152718 | 85 | 216 | 0.0 | 1.7 | 0.00 | 0.48 | 0.00 | 85 | 1011.1 |
| 20260904152616 | 85 | 216 | 0.0 | 1.7 | 0.00 | 0.48 | 0.00 | 85 | 1011.1 |
| 20260904152433 | 85 | 216 | 0.0 | 1.7 | 0.00 | 0.48 | 0.00 | 85 | 1011.2 |
| 20260904152314 | 85 | 216 | 0.0 | 1.7 | 0.00 | 0.48 | 0.00 | 85 | 1011.1 |
| 20260904152222 | 85 | 216 | 0.0 | 1.7 | 0.00 | 0.48 | 0.00 | 84 | 1011.0 |
| 20260904152204 | 85 | 214 | 0.0 | 1.7 | 0.00 | 0.48 | 0.00 | 84 | 1011.0 |
| 20260904152129 | 85 | 216 | 0.0 | 1.7 | 0.00 | 0.48 | 0.00 | 84 | 1011.0 |
| 20260904151715 | 85 | 214 | 0.0 | 1.7 | 0.00 | 0.48 | 0.00 | 86 | 1010.9 |
| 20260904151620 | 84 | 214 | 0.0 | 1.7 | 0.00 | 0.48 | 0.00 | 85 | 1010.9 |
| 20260904151424 | 84 | 214 | 0.0 | 1.7 | 0.00 | 0.48 | 0.00 | 85 | 1010.9 |
| 20260904151322 | 83 | 214 | 0.0 | 1.7 | 0.00 | 0.48 | 0.00 | 86 | 1010.9 |
| 20260904151317 | 83 | 214 | 0.0 | 1.7 | 0.00 | 0.48 | 0.00 | 86 | 1010.9 |
| 20260904151225 | 83 | 214 | 0.0 | 1.7 | 0.00 | 0.48 | 0.00 | 86 | 1010.9 |
| 20260904151144 | 83 | 214 | 0.0 | 1.7 | 0.00 | 0.48 | 0.00 | 86 | 1010.9 |
| 20260904150719 | 83 | 214 | 0.0 | 1.7 | 0.00 | 0.48 | 0.00 | 86 | 1010.9 |
| 20260904150516 | 83 | 217 | 0.0 | 2.6 | 0.00 | 0.48 | 0.00 | 86 | 1010.8 |
| 20260904150433 | 83 | 214 | 0.0 | 2.6 | 0.00 | 0.48 | 0.00 | 86 | 1010.9 |
| 20260904150319 | 83 | 214 | 0.0 | 2.6 | 0.00 | 0.48 | 0.00 | 86 | 1010.9 |
| 20260904150315 | 83 | 214 | 0.0 | 2.6 | 0.00 | 0.48 | 0.00 | 86 | 1010.9 |
| 20260904145931 | 83 | 214 | 0.0 | 2.6 | 0.00 | 0.48 | 0.00 | 86 | 1010.9 |
| 20260904145714 | 83 | 216 | 0.0 | 2.6 | 0.00 | 0.48 | 0.00 | 86 | 1011.0 |
| 20260904145520 | 83 | 214 | 0.0 | 2.6 | 0.00 | 0.48 | 0.00 | 86 | 1011.0 |
| 20260904145416 | 83 | 214 | 0.0 | 2.6 | 0.00 | 0.48 | 0.00 | 86 | 1010.9 |
| 20260904145318 | 83 | 214 | 0.0 | 2.6 | 0.00 | 0.48 | 0.00 | 86 | 1010.9 |
| 20260904145118 | 83 | 214 | 0.0 | 2.6 | 0.00 | 0.48 | 0.00 | 86 | 1011.0 |
| 20260904144935 | 82 | 214 | 0.0 | 1.7 | 0.00 | 0.48 | 0.00 | 88 | 1010.9 |
| 20260904144918 | 83 | 214 | 0.0 | 2.6 | 0.00 | 0.48 | 0.00 | 86 | 1011.0 |
| 20260904144515 | 82 | 213 | 0.0 | 0.9 | 0.00 | 0.48 | 0.00 | 88 | 1010.9 |
| 20260904144416 | 82 | 213 | 0.0 | 0.0 | 0.00 | 0.48 | 0.00 | 88 | 1010.9 |
| 20260904144319 | 82 | 213 | 0.0 | 0.0 | 0.00 | 0.48 | 0.00 | 88 | 1011.0 |
| 20260904144117 | 82 | 213 | 0.0 | 0.9 | 0.00 | 0.48 | 0.00 | 89 | 1011.0 |
| 20260904143918 | 81 | 216 | 0.0 | 0.9 | 0.00 | 0.48 | 0.00 | 89 | 1010.9 |
| 20260904143716 | 81 | 216 | 0.0 | 0.9 | 0.00 | 0.48 | 0.00 | 89 | 1011.0 |
| 20260904143555 | 81 | 216 | 0.0 | 2.6 | 0.00 | 0.48 | 0.00 | 89 | 1011.0 |
| 20260904143515 | 81 | 214 | 0.0 | 0.9 | 0.00 | 0.48 | 0.00 | 89 | 1010.9 |
| 20260904143438 | 81 | 214 | 0.0 | 0.9 | 0.00 | 0.48 | 0.00 | 89 | 1011.0 |
| 20260904143116 | 80 | 216 | 0.0 | 3.5 | 0.00 | 0.48 | 0.00 | 90 | 1010.9 |
| 20260904142931 | 80 | 214 | 0.0 | 3.5 | 0.00 | 0.48 | 0.00 | 90 | 1011.0 |
| 20260904142721 | 80 | 216 | 0.0 | 3.5 | 0.00 | 0.48 | 0.00 | 90 | 1010.9 |
| 20260904142517 | 80 | 216 | 0.0 | 3.5 | 0.00 | 0.48 | 0.00 | 90 | 1011.0 |
| 20260904142425 | 80 | 216 | 0.0 | 3.5 | 0.00 | 0.48 | 0.00 | 90 | 1011.0 |
| 20260904142318 | 80 | 216 | 0.0 | 3.5 | 0.00 | 0.48 | 0.00 | 90 | 1011.0 |
| 20260904142200 | 80 | 214 | 0.0 | 2.6 | 0.00 | 0.48 | 0.00 | 90 | 1010.8 |
| 20260904142152 | 80 | 214 | 0.0 | 2.6 | 0.00 | 0.48 | 0.00 | 90 | 1011.0 |
| 20260904142128 | 80 | 214 | 0.0 | 2.6 | 0.00 | 0.48 | 0.00 | 90 | 1010.9 |
| 20260904141718 | 80 | 216 | 0.0 | 0.9 | 0.00 | 0.48 | 0.00 | 92 | 1011.0 |
| 20260904141517 | 80 | 213 | 0.0 | 0.9 | 0.00 | 0.48 | 0.00 | 92 | 1011.0 |
| 20260904141412 | 80 | 213 | 0.0 | 0.9 | 0.00 | 0.48 | 0.00 | 92 | 1010.8 |
| 20260904141321 | 0 | 0.0 | 0.0 | 0.00 | 0.00 | 0.00 | 1010.9 | ||
| 20260904141308 | 80 | 214 | 0.0 | 0.9 | 0.00 | 0.48 | 0.00 | 92 | 1010.9 |
| 20260904141145 | 0 | 0.0 | 0.0 | 0.00 | 0.00 | 0.00 | 1010.9 | ||
| 20260904141137 | 0 | 214 | 0.0 | 0.0 | 0.00 | 0.48 | 0.00 | 1010.8 | |
| 20260904140604 | 0 | 0.0 | 0.0 | 0.00 | 0.00 | 0.00 | |||
| 20260904140402 | 0 | 0.0 | 0.0 | 0.00 | 0.00 | 0.00 | |||
| 20260904140306 | 0 | 0.0 | 0.0 | 0.00 | 0.00 | 0.00 | |||
| 20260904140207 | 0 | 0.0 | 0.0 | 0.00 | 0.00 | 0.00 | |||
| 20260904140041 | 0 | 0.0 | 0.0 | 0.00 | 0.00 | 0.00 | |||
| 20260904140019 | 0 | 0.0 | 0.0 | 0.00 | 0.00 | 0.00 | |||
| 20260904135639 | 0 | 0.0 | 0.0 | 0.00 | 0.00 | 0.00 | |||
| 20260904135435 | 0 | 0.0 | 0.0 | 0.00 | 0.00 | 0.00 | 1011.0 | ||
| 20260904135305 | 0 | 0.0 | 0.0 | 0.00 | 0.00 | 0.00 | 1011.0 | ||
| 20260904135135 | 0 | 0.0 | 0.0 | 0.00 | 0.00 | 0.00 | 1011.0 | ||
| 20260904134934 | 0 | 0.0 | 0.0 | 0.00 | 0.00 | 0.00 | 1011.0 | ||
| 20260904134802 | 0 | 0.0 | 0.0 | 0.00 | 0.00 | 0.00 | 1011.0 | ||
| 20260904134707 | 0 | 0.0 | 0.0 | 0.00 | 0.00 | 0.00 | 1011.0 | ||
| 20260904134505 | 0 | 0.0 | 0.0 | 0.00 | 0.00 | 0.00 | 1010.9 | ||
| 20260904134308 | 0 | 0.0 | 0.0 | 0.00 | 0.00 | 0.00 | 1010.8 | ||
| 20260904134134 | 0 | 0.0 | 0.0 | 0.00 | 0.48 | 0.00 | |||
| 20260904133836 | 0 | 0.0 | 0.0 | 0.00 | 0.48 | 0.00 | |||
| 20260904133735 | 0 | 0.0 | 0.0 | 0.00 | 0.48 | 0.00 | |||
| 20260904133636 | 0 | 0.0 | 0.0 | 0.00 | 0.48 | 0.00 | |||
| 20260904133434 | 0 | 0.0 | 0.0 | 0.00 | 0.48 | 0.00 | |||
| 20260904133211 | 0 | 0.0 | 0.0 | 0.00 | 0.48 | 0.00 | |||
| 20260904133106 | 0 | 0.0 | 0.0 | 0.00 | 0.48 | 0.00 | 1010.7 | ||
| 20260904132905 | 0 | 0.0 | 0.0 | 0.00 | 0.48 | 0.00 | 1010.7 | ||
| 20260904132730 | 0 | 0.0 | 0.0 | 0.00 | 0.48 | 0.00 | 1010.7 | ||
| 20260904132535 | 0 | 0.0 | 0.0 | 0.00 | 0.48 | 0.00 | 1010.7 | ||
| 20260904132336 | 75 | 175 | 0.0 | 0.0 | 0.00 | 0.48 | 0.00 | 98 | 1010.7 |
| 20260904132204 | 75 | 175 | 0.0 | 0.0 | 0.00 | 0.48 | 0.00 | 98 | 1010.7 |
| 20260904132137 | 75 | 175 | 0.0 | 0.9 | 0.00 | 0.48 | 0.00 | 98 | 1010.7 |
| 20260904131923 | 75 | 175 | 0.0 | 0.9 | 0.00 | 0.48 | 0.00 | 98 | 1010.8 |
| 20260904131723 | 75 | 175 | 0.0 | 0.9 | 0.00 | 0.48 | 0.00 | 98 | 1010.8 |
| 20260904131705 | 75 | 175 | 0.0 | 0.9 | 0.00 | 0.48 | 0.00 | 98 | 1010.9 |
| 20260904131622 | 75 | 175 | 0.0 | 0.9 | 0.00 | 0.48 | 0.00 | 98 | 1010.9 |
| 20260904131422 | 75 | 175 | 0.0 | 0.9 | 0.00 | 0.48 | 0.00 | 98 | 1010.8 |
| 20260904131203 | 75 | 178 | 0.0 | 0.9 | 0.00 | 0.48 | 0.00 | 98 | 1010.8 |
| 20260904131123 | 75 | 141 | 0.0 | 0.0 | 0.00 | 0.48 | 0.00 | 98 | 1010.8 |
| 20260904130923 | 75 | 141 | 0.0 | 0.0 | 0.00 | 0.48 | 0.00 | 98 | 1010.8 |
| 20260904130725 | 75 | 140 | 0.0 | 0.0 | 0.00 | 0.48 | 0.00 | 98 | 1010.7 |
| 20260904130702 | 75 | 141 | 0.0 | 0.0 | 0.00 | 0.48 | 0.00 | 98 | 1010.7 |
| 20260904130523 | 74 | 141 | 0.0 | 0.0 | 0.00 | 0.48 | 0.00 | 98 | 1010.8 |
| 20260904130322 | 0 | 140 | 0.0 | 0.0 | 0.00 | 0.48 | 0.00 | 1010.9 | |
| 20260904130210 | 0 | 141 | 0.0 | 0.0 | 0.00 | 0.48 | 0.00 | 1010.7 | |
| 20260904130202 | 0 | 141 | 0.0 | 0.0 | 0.00 | 0.48 | 0.00 | 1010.9 | |
| 20260904130001 | 0 | 141 | 0.0 | 0.0 | 0.00 | 0.48 | 0.00 | 1010.5 | |
| 20260904125709 | 0 | 0.0 | 0.0 | 0.00 | 0.00 | 0.00 | 1010.7 | ||
| 20260904125331 | 0 | 0.0 | 0.0 | 0.00 | 0.48 | 0.00 | |||
| 20260904125306 | 0 | 0.0 | 0.0 | 0.00 | 0.48 | 0.00 | |||
| 20260904125031 | 0 | 0.0 | 0.0 | 0.00 | 0.48 | 0.00 | |||
| 20260904124805 | 0 | 0.0 | 0.0 | 0.00 | 0.48 | 0.00 | |||
| 20260904124604 | 0 | 0.0 | 0.0 | 0.00 | 0.48 | 0.00 | |||
| 20260904124411 | 0 | 0.0 | 0.0 | 0.00 | 0.48 | 0.00 | |||
| 20260904124233 | 0 | 0.0 | 0.0 | 0.00 | 0.48 | 0.00 | 1010.4 | ||
| 20260904124003 | 0 | 0.0 | 0.0 | 0.00 | 0.48 | 0.00 | 1010.4 | ||
| 20260904123849 | 72 | 127 | 0.0 | 0.0 | 0.00 | 0.48 | 0.00 | 97 | 1010.4 |
| 20260904123746 | 72 | 127 | 0.0 | 0.0 | 0.00 | 0.48 | 0.00 | 97 | 1010.4 |
| 20260904123531 | 72 | 127 | 0.0 | 0.0 | 0.00 | 0.48 | 0.00 | 97 | 1010.4 |
| 20260904123320 | 72 | 127 | 0.0 | 0.0 | 0.00 | 0.48 | 0.00 | 97 | 1010.4 |
| 20260904123230 | 72 | 127 | 0.0 | 0.0 | 0.00 | 0.48 | 0.00 | 97 | 1010.3 |
| 20260904123116 | 72 | 127 | 0.0 | 0.0 | 0.00 | 0.48 | 0.00 | 97 | 1010.4 |
| 20260904122904 | 72 | 127 | 0.0 | 0.0 | 0.00 | 0.48 | 0.00 | 97 | 1010.3 |
| 20260904122800 | 72 | 125 | 0.0 | 0.0 | 0.00 | 0.48 | 0.00 | 97 | 1010.2 |
| 20260904122731 | 72 | 125 | 0.0 | 0.0 | 0.00 | 0.48 | 0.00 | 97 | 1010.3 |
| 20260904122504 | 72 | 125 | 0.0 | 0.0 | 0.00 | 0.48 | 0.00 | 97 | 1010.2 |
| 20260904122404 | 72 | 125 | 0.0 | 0.0 | 0.00 | 0.48 | 0.00 | 97 | 1010.3 |
| 20260904122217 | 72 | 127 | 0.0 | 0.0 | 0.00 | 0.48 | 0.00 | 97 | 1010.3 |
| 20260904122106 | 72 | 127 | 0.0 | 0.0 | 0.00 | 0.48 | 0.00 | 97 | 1010.3 |
| 20260904121905 | 72 | 127 | 0.0 | 0.0 | 0.00 | 0.48 | 0.00 | 97 | 1010.1 |
| 20260904121708 | 72 | 127 | 0.0 | 0.0 | 0.00 | 0.48 | 0.00 | 97 | 1010.2 |
| 20260904121613 | 72 | 125 | 0.0 | 0.0 | 0.00 | 0.48 | 0.00 | 97 | 1010.1 |
| 20260904121518 | 72 | 127 | 0.0 | 0.0 | 0.00 | 0.48 | 0.00 | 97 | 1010.2 |
| 20260904121447 | 72 | 127 | 0.0 | 0.0 | 0.00 | 0.48 | 0.00 | 97 | 1010.2 |
| 20260904121107 | 72 | 127 | 0.0 | 0.0 | 0.00 | 0.48 | 0.00 | 97 | 1010.0 |
| 20260904120902 | 72 | 127 | 0.0 | 0.0 | 0.00 | 0.48 | 0.00 | 97 | 1010.1 |
| 20260904120703 | 72 | 127 | 0.0 | 0.0 | 0.00 | 0.48 | 0.00 | 97 | 1010.0 |
| 20260904120604 | 72 | 127 | 0.0 | 0.0 | 0.00 | 0.48 | 0.00 | 97 | 1010.1 |
| 20260904120440 | 72 | 127 | 0.0 | 0.0 | 0.00 | 0.48 | 0.00 | 97 | 1010.1 |
| 20260904120154 | 72 | 125 | 0.0 | 0.0 | 0.00 | 0.48 | 0.00 | 97 | 1010.1 |
| 20260904115855 | 73 | 127 | 0.0 | 0.0 | 0.00 | 0.48 | 0.00 | 97 | 1010.0 |
| 20260904115708 | 73 | 127 | 0.0 | 0.0 | 0.00 | 0.48 | 0.00 | 97 | 1009.8 |
| 20260904115657 | 73 | 127 | 0.0 | 0.0 | 0.00 | 0.48 | 0.00 | 97 | 1009.8 |
| 20260904115513 | 73 | 127 | 0.0 | 0.0 | 0.00 | 0.48 | 0.00 | 97 | 1009.9 |
| 20260904115502 | 73 | 127 | 0.0 | 0.0 | 0.00 | 0.48 | 0.00 | 97 | 1009.9 |
| 20260904115429 | 73 | 127 | 0.0 | 0.0 | 0.00 | 0.48 | 0.00 | 97 | 1009.9 |
| 20260904115127 | 73 | 127 | 0.0 | 0.0 | 0.00 | 0.48 | 0.00 | 97 | 1010.0 |
| 20260904114834 | 73 | 157 | 0.0 | 0.0 | 0.00 | 0.48 | 0.00 | 97 | 1010.0 |
| 20260904114739 | 73 | 158 | 0.0 | 0.0 | 0.00 | 0.48 | 0.00 | 97 | 1010.0 |
| 20260904114706 | 73 | 158 | 0.0 | 0.0 | 0.00 | 0.48 | 0.00 | 97 | 1010.0 |
| 20260904114426 | 73 | 159 | 0.0 | 0.0 | 0.00 | 0.48 | 0.00 | 97 | 1009.8 |
| 20260904114227 | 73 | 158 | 0.0 | 0.0 | 0.00 | 0.48 | 0.00 | 97 | 1009.9 |
| 20260904114207 | 73 | 158 | 0.0 | 0.0 | 0.00 | 0.48 | 0.00 | 97 | 1009.8 |
| 20260904114024 | 73 | 158 | 0.0 | 0.0 | 0.00 | 0.48 | 0.00 | 97 | 1009.7 |
| 20260904113820 | 73 | 158 | 0.0 | 0.0 | 0.00 | 0.48 | 0.00 | 97 | 1009.8 |
| 20260904113709 | 73 | 157 | 0.0 | 0.0 | 0.00 | 0.48 | 0.00 | 97 | 1009.7 |
| 20260904113619 | 73 | 157 | 0.0 | 0.0 | 0.00 | 0.48 | 0.00 | 97 | 1009.7 |
| 20260904113507 | 73 | 158 | 0.0 | 0.0 | 0.00 | 0.48 | 0.00 | 97 | 1009.9 |
| 20260904113454 | 73 | 158 | 0.0 | 0.0 | 0.00 | 0.48 | 0.00 | 97 | 1009.8 |